Wetterdaten: Montag, 24.12.2018
Datum Zeit Temp. Aussen Temp. o. S. +5cm Feuchte Auss Luftdruck Regen Sonnenschein Regendauer Solar Windben Empfang
24.12.2018 00:00 5,8 C 5,0 C 5,0 C 98 % 1014,2 hPa 0,0 l/m 0 min 2 min 0 W/m 16,1 km/h (3 Bft) 100,00 %
24.12.2018 00:02 5,8 C 5,0 C 5,0 C 98 % 1014,6 hPa 0,0 l/m 0 min 2 min 0 W/m 3,2 km/h (1 Bft) 10,00 %
24.12.2018 00:04 5,8 C 5,0 C 5,0 C 98 % 1014,7 hPa 0,0 l/m 0 min 2 min 0 W/m 19,3 km/h (3 Bft) 95,35 %
24.12.2018 00:07 5,8 C 5,0 C 5,0 C 98 % 1014,7 hPa 0,0 l/m 0 min 3 min 0 W/m 25,7 km/h (4 Bft) 100,00 %
24.12.2018 00:08 5,8 C 5,0 C 5,0 C 98 % 1014,7 hPa 0,0 l/m 0 min 1 min 0 W/m 19,3 km/h (3 Bft) 100,00 %
24.12.2018 00:10 5,8 C 5,0 C 5,0 C 98 % 1014,9 hPa 0,0 l/m 0 min 2 min 0 W/m 16,1 km/h (3 Bft) 100,00 %
24.12.2018 00:12 5,8 C 5,0 C 5,0 C 98 % 1015,2 hPa 0,0 l/m 0 min 2 min 0 W/m 25,7 km/h (4 Bft) 97,87 %
24.12.2018 00:14 5,8 C 5,0 C 5,0 C 98 % 1015,1 hPa 0,0 l/m 0 min 2 min 0 W/m 9,7 km/h (2 Bft) 100,00 %
24.12.2018 00:16 5,8 C 5,0 C 5,0 C 98 % 1015,0 hPa 0,2 l/m 0 min 2 min 0 W/m 19,3 km/h (3 Bft) 100,00 %
24.12.2018 00:18 5,8 C 5,0 C 5,0 C 98 % 1015,1 hPa 0,0 l/m 0 min 2 min 0 W/m 9,7 km/h (2 Bft) 100,00 %
24.12.2018 00:20 5,8 C 5,0 C 5,0 C 98 % 1015,1 hPa 0,0 l/m 0 min 2 min 0 W/m 12,9 km/h (3 Bft) 100,00 %
24.12.2018 00:22 5,8 C 5,0 C 5,0 C 98 % 1015,2 hPa 0,0 l/m 0 min 2 min 0 W/m 16,1 km/h (3 Bft) 97,87 %
24.12.2018 00:24 5,8 C 5,0 C 5,0 C 98 % 1015,4 hPa 0,0 l/m 0 min 2 min 0 W/m 12,9 km/h (3 Bft) 97,87 %
24.12.2018 00:26 5,7 C 5,0 C 5,0 C 98 % 1015,4 hPa 0,0 l/m 0 min 2 min 0 W/m 9,7 km/h (2 Bft) 97,87 %
24.12.2018 00:28 5,7 C 5,0 C 4,4 C 98 % 1015,4 hPa 0,0 l/m 0 min 2 min 0 W/m 25,7 km/h (4 Bft) 97,92 %
24.12.2018 00:30 5,7 C 5,0 C 5,0 C 98 % 1015,4 hPa 0,0 l/m 0 min 2 min 0 W/m 12,9 km/h (3 Bft) 95,92 %
24.12.2018 00:32 5,7 C 5,0 C 5,0 C 98 % 1015,5 hPa 0,2 l/m 0 min 2 min 0 W/m 16,1 km/h (3 Bft) 97,92 %
24.12.2018 00:34 5,7 C 5,0 C 4,4 C 98 % 1015,5 hPa 0,0 l/m 0 min 2 min 0 W/m 16,1 km/h (3 Bft) 95,74 %
24.12.2018 00:36 5,7 C 5,0 C 4,4 C 98 % 1015,4 hPa 0,0 l/m 0 min 2 min 0 W/m 19,3 km/h (3 Bft) 97,87 %
24.12.2018 00:38 5,7 C 5,0 C 4,4 C 98 % 1015,4 hPa 0,0 l/m 0 min 2 min 0 W/m 22,5 km/h (4 Bft) 97,67 %
24.12.2018 00:40 5,7 C 5,0 C 4,4 C 98 % 1015,5 hPa 0,0 l/m 0 min 2 min 0 W/m 16,1 km/h (3 Bft) 97,83 %
24.12.2018 00:42 5,7 C 5,0 C 4,4 C 98 % 1015,5 hPa 0,0 l/m 0 min 2 min 0 W/m 22,5 km/h (4 Bft) 98,00 %
24.12.2018 00:44 5,7 C 5,0 C 4,4 C 99 % 1015,5 hPa 0,0 l/m 0 min 2 min 0 W/m 16,1 km/h (3 Bft) 97,87 %
24.12.2018 00:46 5,7 C 5,0 C 4,4 C 99 % 1015,5 hPa 0,0 l/m 0 min 2 min 0 W/m 19,3 km/h (3 Bft) 93,62 %
24.12.2018 00:48 5,6 C 5,0 C 4,4 C 99 % 1015,6 hPa 0,0 l/m 0 min 2 min 0 W/m 19,3 km/h (3 Bft) 97,87 %
24.12.2018 00:50 5,6 C 5,0 C 4,4 C 99 % 1015,6 hPa 0,0 l/m 0 min 2 min 0 W/m 9,7 km/h (2 Bft) 97,92 %
24.12.2018 00:52 5,6 C 4,4 C 4,4 C 99 % 1015,7 hPa 0,2 l/m 0 min 2 min 0 W/m 12,9 km/h (3 Bft) 97,87 %
24.12.2018 00:54 5,6 C 4,4 C 4,4 C 99 % 1015,6 hPa 0,0 l/m 0 min 2 min 0 W/m 16,1 km/h (3 Bft) 95,65 %
24.12.2018 00:56 5,6 C 4,4 C 4,4 C 99 % 1015,6 hPa 0,0 l/m 0 min 2 min 0 W/m 16,1 km/h (3 Bft) 95,74 %
24.12.2018 00:58 5,5 C 4,4 C 4,4 C 98 % 1015,7 hPa 0,0 l/m 0 min 2 min 0 W/m 16,1 km/h (3 Bft) 97,87 %
24.12.2018 01:00 5,5 C 4,4 C 4,4 C 98 % 1015,8 hPa 0,0 l/m 0 min 2 min 0 W/m 19,3 km/h (3 Bft) 97,87 %
24.12.2018 01:02 5,4 C 4,4 C 4,4 C 98 % 1015,8 hPa 0,0 l/m 0 min 2 min 0 W/m 32,2 km/h (5 Bft) 95,74 %
24.12.2018 01:04 5,4 C 4,4 C 4,4 C 98 % 1015,9 hPa 0,0 l/m 0 min 2 min 0 W/m 19,3 km/h (3 Bft) 95,74 %
24.12.2018 01:06 5,4 C 4,4 C 4,4 C 99 % 1016,0 hPa 0,0 l/m 0 min 2 min 0 W/m 16,1 km/h (3 Bft) 95,65 %
24.12.2018 01:08 5,4 C 4,4 C 4,4 C 99 % 1015,9 hPa 0,0 l/m 0 min 2 min 0 W/m 19,3 km/h (3 Bft) 97,87 %
24.12.2018 01:10 5,3 C 4,4 C 4,4 C 99 % 1016,0 hPa 0,0 l/m 0 min 2 min 0 W/m 16,1 km/h (3 Bft) 95,74 %
24.12.2018 01:12 5,3 C 4,4 C 4,4 C 99 % 1016,1 hPa 0,2 l/m 0 min 2 min 0 W/m 16,1 km/h (3 Bft) 97,87 %
24.12.2018 01:14 5,3 C 4,4 C 4,4 C 99 % 1016,1 hPa 0,0 l/m 0 min 2 min 0 W/m 16,1 km/h (3 Bft) 97,87 %
24.12.2018 01:16 5,3 C 4,4 C 4,4 C 99 % 1016,1 hPa 0,0 l/m 0 min 2 min 0 W/m 12,9 km/h (3 Bft) 100,00 %
24.12.2018 01:18 5,3 C 4,4 C 4,4 C 99 % 1016,2 hPa 0,0 l/m 0 min 2 min 0 W/m 19,3 km/h (3 Bft) 95,74 %
24.12.2018 01:20 5,3 C 4,4 C 4,4 C 99 % 1016,1 hPa 0,0 l/m 0 min 2 min 0 W/m 19,3 km/h (3 Bft) 100,00 %
24.12.2018 01:22 5,3 C 4,4 C 4,4 C 99 % 1016,0 hPa 0,0 l/m 0 min 2 min 0 W/m 12,9 km/h (3 Bft) 100,00 %
24.12.2018 01:24 5,3 C 4,4 C 4,4 C 99 % 1016,2 hPa 0,0 l/m 0 min 2 min 0 W/m 19,3 km/h (3 Bft) 97,87 %
24.12.2018 01:26 5,3 C 4,4 C 4,4 C 99 % 1016,3 hPa 0,0 l/m 0 min 2 min 0 W/m 19,3 km/h (3 Bft) 97,87 %
24.12.2018 01:28 5,3 C 4,4 C 4,4 C 99 % 1016,3 hPa 0,0 l/m 0 min 2 min 0 W/m 22,5 km/h (4 Bft) 97,83 %
24.12.2018 01:30 5,3 C 4,4 C 4,4 C 99 % 1016,4 hPa 0,0 l/m 0 min 2 min 0 W/m 12,9 km/h (3 Bft) 97,87 %
24.12.2018 01:32 5,2 C 4,4 C 4,4 C 99 % 1016,4 hPa 0,0 l/m 0 min 2 min 0 W/m 16,1 km/h (3 Bft) 97,87 %
24.12.2018 01:34 5,2 C 4,4 C 4,4 C 99 % 1016,4 hPa 0,0 l/m 0 min 2 min 0 W/m 25,7 km/h (4 Bft) 97,87 %
24.12.2018 01:36 5,2 C 4,4 C 4,4 C 99 % 1016,5 hPa 0,0 l/m 0 min 2 min 0 W/m 25,7 km/h (4 Bft) 97,87 %
24.12.2018 01:38 5,2 C 4,4 C 4,4 C 98 % 1016,5 hPa 0,0 l/m 0 min 0 min 0 W/m 9,7 km/h (2 Bft) 97,87 %
24.12.2018 01:40 5,2 C 4,4 C 4,4 C 98 % 1016,5 hPa 0,0 l/m 0 min 0 min 0 W/m 12,9 km/h (3 Bft) 97,83 %
24.12.2018 01:42 5,2 C 4,4 C 4,4 C 98 % 1016,5 hPa 0,0 l/m 0 min 2 min 0 W/m 16,1 km/h (3 Bft) 93,62 %
24.12.2018 01:44 5,2 C 4,4 C 4,4 C 98 % 1016,5 hPa 0,0 l/m 0 min 0 min 0 W/m 12,9 km/h (3 Bft) 97,87 %
24.12.2018 01:46 5,2 C 4,4 C 4,4 C 98 % 1016,6 hPa 0,0 l/m 0 min 0 min 0 W/m 9,7 km/h (2 Bft) 97,87 %
24.12.2018 01:48 5,2 C 4,4 C 4,4 C 98 % 1016,7 hPa 0,0 l/m 0 min 0 min 0 W/m 16,1 km/h (3 Bft) 97,87 %
24.12.2018 01:50 5,2 C 4,4 C 4,4 C 98 % 1016,8 hPa 0,0 l/m 0 min 0 min 0 W/m 12,9 km/h (3 Bft) 95,74 %
24.12.2018 01:52 5,2 C 4,4 C 4,4 C 98 % 1016,8 hPa 0,0 l/m 0 min 0 min 0 W/m 12,9 km/h (3 Bft) 97,83 %
24.12.2018 01:54 5,2 C 4,4 C 4,4 C 98 % 1016,9 hPa 0,0 l/m 0 min 0 min 0 W/m 16,1 km/h (3 Bft) 95,74 %
24.12.2018 01:56 5,2 C 4,4 C 4,4 C 98 % 1016,9 hPa 0,0 l/m 0 min 0 min 0 W/m 6,4 km/h (2 Bft) 95,74 %
24.12.2018 01:58 5,2 C 4,4 C 4,4 C 98 % 1017,0 hPa 0,0 l/m 0 min 0 min 0 W/m 12,9 km/h (3 Bft) 95,74 %
24.12.2018 02:00 5,2 C 4,4 C 4,4 C 98 % 1017,2 hPa 0,0 l/m 0 min 0 min 0 W/m 9,7 km/h (2 Bft) 93,62 %
24.12.2018 02:02 5,2 C 4,4 C 4,4 C 98 % 1017,3 hPa 0,0 l/m 0 min 0 min 0 W/m 9,7 km/h (2 Bft) 93,62 %
24.12.2018 02:04 5,2 C 4,4 C 4,4 C 98 % 1017,3 hPa 0,0 l/m 0 min 0 min 0 W/m 6,4 km/h (2 Bft) 93,48 %
24.12.2018 02:06 5,2 C 4,4 C 4,4 C 98 % 1017,5 hPa 0,0 l/m 0 min 0 min 0 W/m 12,9 km/h (3 Bft) 93,62 %
24.12.2018 02:08 5,2 C 4,4 C 4,4 C 98 % 1017,5 hPa 0,0 l/m 0 min 0 min 0 W/m 16,1 km/h (3 Bft) 95,74 %
24.12.2018 02:10 5,2 C 4,4 C 4,4 C 98 % 1017,5 hPa 0,0 l/m 0 min 0 min 0 W/m 12,9 km/h (3 Bft) 95,74 %
24.12.2018 02:12 5,2 C 4,4 C 4,4 C 98 % 1017,4 hPa 0,0 l/m 0 min 0 min 0 W/m 6,4 km/h (2 Bft) 95,74 %
24.12.2018 02:14 5,2 C 4,4 C 4,4 C 98 % 1017,5 hPa 0,0 l/m 0 min 0 min 0 W/m 16,1 km/h (3 Bft) 95,74 %
24.12.2018 02:16 5,2 C 4,4 C 4,4 C 98 % 1017,5 hPa 0,0 l/m 0 min 0 min 0 W/m 19,3 km/h (3 Bft) 97,83 %
24.12.2018 02:18 5,2 C 4,4 C 4,4 C 98 % 1017,6 hPa 0,0 l/m 0 min 0 min 0 W/m 9,7 km/h (2 Bft) 97,87 %
24.12.2018 02:20 5,2 C 4,4 C 4,4 C 99 % 1017,7 hPa 0,0 l/m 0 min 0 min 0 W/m 12,9 km/h (3 Bft) 97,87 %
24.12.2018 02:22 5,2 C 4,4 C 4,4 C 98 % 1017,8 hPa 0,0 l/m 0 min 0 min 0 W/m 6,4 km/h (2 Bft) 97,87 %
24.12.2018 02:24 5,3 C 4,4 C 4,4 C 99 % 1017,9 hPa 0,0 l/m 0 min 0 min 0 W/m 12,9 km/h (3 Bft) 95,74 %
24.12.2018 02:26 5,3 C 4,4 C 4,4 C 99 % 1017,9 hPa 0,0 l/m 0 min 0 min 0 W/m 3,2 km/h (1 Bft) 97,87 %
24.12.2018 02:28 5,3 C 4,4 C 4,4 C 99 % 1017,9 hPa 0,0 l/m 0 min 0 min 0 W/m 9,7 km/h (2 Bft) 97,83 %
24.12.2018 02:30 5,3 C 4,4 C 4,4 C 99 % 1018,1 hPa 0,0 l/m 0 min 0 min 0 W/m 12,9 km/h (3 Bft) 97,87 %
24.12.2018 02:32 5,3 C 4,4 C 4,4 C 99 % 1018,1 hPa 0,0 l/m 0 min 0 min 0 W/m 9,7 km/h (2 Bft) 97,87 %
24.12.2018 02:34 5,3 C 4,4 C 4,4 C 99 % 1018,1 hPa 0,0 l/m 0 min 0 min 0 W/m 9,7 km/h (2 Bft) 97,87 %
24.12.2018 02:36 5,3 C 4,4 C 4,4 C 99 % 1018,2 hPa 0,0 l/m 0 min 0 min 0 W/m 9,7 km/h (2 Bft) 95,74 %
24.12.2018 02:38 5,3 C 4,4 C 4,4 C 99 % 1018,2 hPa 0,0 l/m 0 min 0 min 0 W/m 12,9 km/h (3 Bft) 97,83 %
24.12.2018 02:40 5,3 C 4,4 C 4,4 C 99 % 1018,3 hPa 0,0 l/m 0 min 0 min 0 W/m 19,3 km/h (3 Bft) 93,62 %
24.12.2018 02:42 5,3 C 4,4 C 4,4 C 99 % 1018,4 hPa 0,0 l/m 0 min 0 min 0 W/m 16,1 km/h (3 Bft) 95,74 %
24.12.2018 02:44 5,3 C 5,0 C 4,4 C 99 % 1018,4 hPa 0,0 l/m 0 min 0 min 0 W/m 6,4 km/h (2 Bft) 97,87 %
24.12.2018 02:46 5,3 C 5,0 C 4,4 C 99 % 1018,4 hPa 0,0 l/m 0 min 0 min 0 W/m 3,2 km/h (1 Bft) 95,74 %
24.12.2018 02:48 5,3 C 5,0 C 4,4 C 99 % 1018,4 hPa 0,0 l/m 0 min 0 min 0 W/m 9,7 km/h (2 Bft) 97,87 %
24.12.2018 02:50 5,3 C 5,0 C 4,4 C 99 % 1018,5 hPa 0,0 l/m 0 min 0 min 0 W/m 12,9 km/h (3 Bft) 97,87 %
24.12.2018 02:52 5,3 C 5,0 C 4,4 C 99 % 1018,5 hPa 0,0 l/m 0 min 0 min 0 W/m 12,9 km/h (3 Bft) 97,87 %
24.12.2018 02:54 5,4 C 5,0 C 4,4 C 99 % 1018,5 hPa 0,0 l/m 0 min 0 min 0 W/m 9,7 km/h (2 Bft) 95,74 %
24.12.2018 02:56 5,4 C 5,0 C 4,4 C 99 % 1018,5 hPa 0,0 l/m 0 min 0 min 0 W/m 16,1 km/h (3 Bft) 95,74 %
24.12.2018 02:58 5,4 C 5,0 C 4,4 C 99 % 1018,5 hPa 0,0 l/m 0 min 0 min 0 W/m 9,7 km/h (2 Bft) 100,00 %
24.12.2018 03:00 5,4 C 5,0 C 4,4 C 99 % 1018,5 hPa 0,0 l/m 0 min 0 min 0 W/m 12,9 km/h (3 Bft) 97,14 %
24.12.2018 03:02 5,4 C 5,0 C 4,4 C 99 % 1018,6 hPa 0,0 l/m 0 min 0 min 0 W/m 12,9 km/h (3 Bft) 95,83 %
24.12.2018 03:04 5,4 C 5,0 C 4,4 C 99 % 1018,6 hPa 0,0 l/m 0 min 0 min 0 W/m 12,9 km/h (3 Bft) 97,87 %
24.12.2018 03:06 5,4 C 5,0 C 4,4 C 99 % 1018,7 hPa 0,0 l/m 0 min 0 min 0 W/m 16,1 km/h (3 Bft) 97,87 %
24.12.2018 03:08 5,4 C 5,0 C 4,4 C 99 % 1018,7 hPa 0,0 l/m 0 min 0 min 0 W/m 19,3 km/h (3 Bft) 95,74 %
24.12.2018 03:10 5,4 C 5,0 C 4,4 C 99 % 1018,7 hPa 0,0 l/m 0 min 0 min 0 W/m 12,9 km/h (3 Bft) 97,87 %
24.12.2018 03:12 5,4 C 5,0 C 4,4 C 99 % 1018,7 hPa 0,0 l/m 0 min 0 min 0 W/m 6,4 km/h (2 Bft) 95,74 %
24.12.2018 03:14 5,4 C 4,4 C 4,4 C 99 % 1018,7 hPa 0,0 l/m 0 min 0 min 0 W/m 12,9 km/h (3 Bft) 95,65 %
24.12.2018 03:16 5,4 C 4,4 C 4,4 C 99 % 1018,8 hPa 0,0 l/m 0 min 0 min 0 W/m 12,9 km/h (3 Bft) 97,87 %
24.12.2018 03:18 5,4 C 4,4 C 4,4 C 99 % 1018,9 hPa 0,0 l/m 0 min 0 min 0 W/m 9,7 km/h (2 Bft) 97,87 %
24.12.2018 03:20 5,4 C 4,4 C 4,4 C 99 % 1018,9 hPa 0,0 l/m 0 min 0 min 0 W/m 12,9 km/h (3 Bft) 97,87 %
24.12.2018 03:22 5,4 C 4,4 C 4,4 C 99 % 1018,9 hPa 0,0 l/m 0 min 0 min 0 W/m 12,9 km/h (3 Bft) 95,74 %
24.12.2018 03:24 5,4 C 4,4 C 4,4 C 99 % 1019,0 hPa 0,0 l/m 0 min 0 min 0 W/m 9,7 km/h (2 Bft) 97,87 %
24.12.2018 03:26 5,4 C 4,4 C 4,4 C 99 % 1019,0 hPa 0,0 l/m 0 min 0 min 0 W/m 12,9 km/h (3 Bft) 95,65 %
24.12.2018 03:28 5,3 C 4,4 C 4,4 C 99 % 1019,0 hPa 0,0 l/m 0 min 0 min 0 W/m 9,7 km/h (2 Bft) 97,87 %
24.12.2018 03:30 5,3 C 4,4 C 4,4 C 99 % 1019,0 hPa 0,0 l/m 0 min 0 min 0 W/m 12,9 km/h (3 Bft) 97,87 %
24.12.2018 03:32 5,4 C 4,4 C 4,4 C 99 % 1019,1 hPa 0,0 l/m 0 min 0 min 0 W/m 12,9 km/h (3 Bft) 95,74 %
24.12.2018 03:34 5,4 C 4,4 C 4,4 C 99 % 1019,1 hPa 0,0 l/m 0 min 0 min 0 W/m 16,1 km/h (3 Bft) 97,87 %
24.12.2018 03:36 5,4 C 4,4 C 4,4 C 99 % 1019,2 hPa 0,0 l/m 0 min 0 min 0 W/m 9,7 km/h (2 Bft) 97,83 %
24.12.2018 03:38 5,4 C 5,0 C 4,4 C 99 % 1019,2 hPa 0,0 l/m 0 min 0 min 0 W/m 6,4 km/h (2 Bft) 97,87 %
24.12.2018 03:40 5,4 C 5,0 C 4,4 C 99 % 1019,2 hPa 0,0 l/m 0 min 0 min 0 W/m 6,4 km/h (2 Bft) 97,87 %
24.12.2018 03:42 5,4 C 5,0 C 4,4 C 99 % 1019,2 hPa 0,0 l/m 0 min 0 min 0 W/m 19,3 km/h (3 Bft) 93,62 %
24.12.2018 03:44 5,4 C 5,0 C 4,4 C 99 % 1019,3 hPa 0,0 l/m 0 min 0 min 0 W/m 19,3 km/h (3 Bft) 100,00 %
24.12.2018 03:46 5,4 C 4,4 C 4,4 C 99 % 1019,3 hPa 0,0 l/m 0 min 0 min 0 W/m 12,9 km/h (3 Bft) 100,00 %
24.12.2018 03:48 5,4 C 5,0 C 4,4 C 99 % 1019,3 hPa 0,0 l/m 0 min 0 min 0 W/m 6,4 km/h (2 Bft) 100,00 %
24.12.2018 03:50 5,4 C 5,0 C 4,4 C 99 % 1019,3 hPa 0,0 l/m 0 min 0 min 0 W/m 12,9 km/h (3 Bft) 97,87 %
24.12.2018 03:52 5,4 C 5,0 C 4,4 C 99 % 1019,5 hPa 0,0 l/m 0 min 0 min 0 W/m 16,1 km/h (3 Bft) 97,87 %
24.12.2018 03:54 5,4 C 5,0 C 4,4 C 99 % 1019,5 hPa 0,0 l/m 0 min 0 min 0 W/m 12,9 km/h (3 Bft) 97,87 %
24.12.2018 03:56 5,4 C 5,0 C 4,4 C 99 % 1019,5 hPa 0,0 l/m 0 min 0 min 0 W/m 16,1 km/h (3 Bft) 97,87 %
24.12.2018 03:58 5,4 C 5,0 C 4,4 C 99 % 1019,5 hPa 0,0 l/m 0 min 0 min 0 W/m 12,9 km/h (3 Bft) 95,74 %
24.12.2018 04:00 5,4 C 5,0 C 4,4 C 99 % 1019,6 hPa 0,0 l/m 0 min 0 min 0 W/m 22,5 km/h (4 Bft) 95,65 %
24.12.2018 04:02 5,4 C 5,0 C 4,4 C 99 % 1019,6 hPa 0,0 l/m 0 min 0 min 0 W/m 12,9 km/h (3 Bft) 100,00 %
24.12.2018 04:04 5,4 C 5,0 C 4,4 C 99 % 1019,7 hPa 0,0 l/m 0 min 0 min 0 W/m 12,9 km/h (3 Bft) 95,74 %
24.12.2018 04:06 5,4 C 5,0 C 4,4 C 99 % 1019,7 hPa 0,0 l/m 0 min 0 min 0 W/m 6,4 km/h (2 Bft) 100,00 %
24.12.2018 04:08 5,4 C 5,0 C 4,4 C 99 % 1019,8 hPa 0,0 l/m 0 min 0 min 0 W/m 12,9 km/h (3 Bft) 100,00 %
24.12.2018 04:10 5,4 C 5,0 C 4,4 C 99 % 1019,7 hPa 0,0 l/m 0 min 0 min 0 W/m 9,7 km/h (2 Bft) 97,87 %
24.12.2018 04:12 5,4 C 5,0 C 4,4 C 99 % 1019,8 hPa 0,0 l/m 0 min 0 min 0 W/m 16,1 km/h (3 Bft) 97,83 %
24.12.2018 04:14 5,4 C 5,0 C 4,4 C 99 % 1019,8 hPa 0,0 l/m 0 min 0 min 0 W/m 9,7 km/h (2 Bft) 97,87 %
24.12.2018 04:16 5,4 C 5,0 C 4,4 C 99 % 1019,8 hPa 0,0 l/m 0 min 0 min 0 W/m 16,1 km/h (3 Bft) 97,87 %
24.12.2018 04:18 5,4 C 5,0 C 4,4 C 99 % 1019,9 hPa 0,0 l/m 0 min 0 min 0 W/m 6,4 km/h (2 Bft) 95,74 %
24.12.2018 04:20 5,4 C 5,0 C 4,4 C 99 % 1019,8 hPa 0,0 l/m 0 min 0 min 0 W/m 6,4 km/h (2 Bft) 97,87 %
24.12.2018 04:22 5,4 C 5,0 C 4,4 C 99 % 1019,9 hPa 0,0 l/m 0 min 0 min 0 W/m 6,4 km/h (2 Bft) 95,74 %
24.12.2018 04:24 5,4 C 5,0 C 4,4 C 99 % 1019,9 hPa 0,0 l/m 0 min 0 min 0 W/m 9,7 km/h (2 Bft) 95,65 %
24.12.2018 04:26 5,4 C 5,0 C 4,4 C 99 % 1020,0 hPa 0,0 l/m 0 min 0 min 0 W/m 9,7 km/h (2 Bft) 95,74 %
24.12.2018 04:28 5,4 C 5,0 C 4,4 C 99 % 1020,1 hPa 0,0 l/m 0 min 0 min 0 W/m 6,4 km/h (2 Bft) 97,87 %
24.12.2018 04:30 5,4 C 5,0 C 4,4 C 99 % 1020,1 hPa 0,0 l/m 0 min 0 min 0 W/m 9,7 km/h (2 Bft) 97,87 %
24.12.2018 04:32 5,4 C 5,0 C 4,4 C 99 % 1020,1 hPa 0,0 l/m 0 min 0 min 0 W/m 12,9 km/h (3 Bft) 97,87 %
24.12.2018 04:34 5,4 C 5,0 C 4,4 C 99 % 1020,1 hPa 0,0 l/m 0 min 0 min 0 W/m 16,1 km/h (3 Bft) 93,62 %
24.12.2018 04:36 5,4 C 5,0 C 4,4 C 99 % 1020,3 hPa 0,0 l/m 0 min 0 min 0 W/m 12,9 km/h (3 Bft) 97,83 %
24.12.2018 04:38 5,4 C 5,0 C 4,4 C 99 % 1020,3 hPa 0,0 l/m 0 min 0 min 0 W/m 9,7 km/h (2 Bft) 98,11 %
24.12.2018 04:40 5,4 C 5,0 C 4,4 C 99 % 1020,3 hPa 0,0 l/m 0 min 0 min 0 W/m 9,7 km/h (2 Bft) 97,87 %
24.12.2018 04:42 5,4 C 5,0 C 4,4 C 99 % 1020,3 hPa 0,0 l/m 0 min 0 min 0 W/m 6,4 km/h (2 Bft) 95,74 %
24.12.2018 04:44 5,4 C 5,0 C 4,4 C 99 % 1020,3 hPa 0,0 l/m 0 min 0 min 0 W/m 9,7 km/h (2 Bft) 97,87 %
24.12.2018 04:46 5,4 C 5,0 C 4,4 C 99 % 1020,3 hPa 0,0 l/m 0 min 0 min 0 W/m 9,7 km/h (2 Bft) 97,87 %
24.12.2018 04:48 5,4 C 5,0 C 4,4 C 99 % 1020,4 hPa 0,0 l/m 0 min 0 min 0 W/m 3,2 km/h (1 Bft) 95,65 %
24.12.2018 04:50 5,4 C 5,0 C 4,4 C 99 % 1020,4 hPa 0,0 l/m 0 min 0 min 0 W/m 3,2 km/h (1 Bft) 97,87 %
24.12.2018 04:52 5,4 C 5,0 C 4,4 C 99 % 1020,5 hPa 0,0 l/m 0 min 0 min 0 W/m 6,4 km/h (2 Bft) 97,87 %
24.12.2018 04:54 5,4 C 5,0 C 4,4 C 99 % 1020,5 hPa 0,0 l/m 0 min 0 min 0 W/m 6,4 km/h (2 Bft) 97,87 %
24.12.2018 04:56 5,4 C 5,0 C 4,4 C 99 % 1020,6 hPa 0,0 l/m 0 min 0 min 0 W/m 6,4 km/h (2 Bft) 97,87 %
24.12.2018 04:58 5,4 C 5,0 C 4,4 C 99 % 1020,6 hPa 0,0 l/m 0 min 0 min 0 W/m 6,4 km/h (2 Bft) 97,87 %
24.12.2018 05:00 5,4 C 5,0 C 4,4 C 99 % 1020,7 hPa 0,0 l/m 0 min 0 min 0 W/m 6,4 km/h (2 Bft) 100,00 %
24.12.2018 05:02 5,4 C 5,0 C 4,4 C 99 % 1020,6 hPa 0,0 l/m 0 min 0 min 0 W/m 6,4 km/h (2 Bft) 100,00 %
24.12.2018 05:04 5,4 C 5,0 C 4,4 C 99 % 1020,7 hPa 0,0 l/m 0 min 0 min 0 W/m 6,4 km/h (2 Bft) 100,00 %
24.12.2018 05:06 5,4 C 5,0 C 4,4 C 99 % 1020,8 hPa 0,0 l/m 0 min 0 min 0 W/m 3,2 km/h (1 Bft) 95,74 %
24.12.2018 05:08 5,4 C 5,0 C 4,4 C 99 % 1020,8 hPa 0,0 l/m 0 min 0 min 0 W/m 6,4 km/h (2 Bft) 100,00 %
24.12.2018 05:10 5,4 C 4,4 C 4,4 C 99 % 1020,7 hPa 0,0 l/m 0 min 0 min 0 W/m 9,7 km/h (2 Bft) 100,00 %
24.12.2018 05:12 5,4 C 4,4 C 4,4 C 99 % 1020,7 hPa 0,0 l/m 0 min 0 min 0 W/m 6,4 km/h (2 Bft) 97,83 %
24.12.2018 05:14 5,4 C 5,0 C 4,4 C 99 % 1020,7 hPa 0,0 l/m 0 min 0 min 0 W/m 9,7 km/h (2 Bft) 97,87 %
24.12.2018 05:16 5,4 C 4,4 C 4,4 C 99 % 1020,8 hPa 0,0 l/m 0 min 0 min 0 W/m 9,7 km/h (2 Bft) 100,00 %
24.12.2018 05:18 5,4 C 5,0 C 4,4 C 99 % 1020,9 hPa 0,0 l/m 0 min 0 min 0 W/m 6,4 km/h (2 Bft) 100,00 %
24.12.2018 05:20 5,4 C 5,0 C 4,4 C 99 % 1020,9 hPa 0,0 l/m 0 min 0 min 0 W/m 12,9 km/h (3 Bft) 97,62 %
24.12.2018 05:22 5,4 C 5,0 C 4,4 C 99 % 1021,0 hPa 0,0 l/m 0 min 0 min 0 W/m 9,7 km/h (2 Bft) 97,83 %
24.12.2018 05:24 5,4 C 5,0 C 4,4 C 99 % 1021,0 hPa 0,0 l/m 0 min 0 min 0 W/m 6,4 km/h (2 Bft) 97,87 %
24.12.2018 05:26 5,4 C 5,0 C 4,4 C 99 % 1021,0 hPa 0,0 l/m 0 min 0 min 0 W/m 9,7 km/h (2 Bft) 97,96 %
24.12.2018 05:28 5,4 C 5,0 C 4,4 C 99 % 1021,2 hPa 0,0 l/m 0 min 0 min 0 W/m 12,9 km/h (3 Bft) 97,87 %
24.12.2018 05:30 5,4 C 5,0 C 4,4 C 99 % 1021,2 hPa 0,0 l/m 0 min 0 min 0 W/m 9,7 km/h (2 Bft) 95,74 %
24.12.2018 05:32 5,4 C 5,0 C 4,4 C 99 % 1021,2 hPa 0,0 l/m 0 min 0 min 0 W/m 9,7 km/h (2 Bft) 95,65 %
24.12.2018 05:34 5,4 C 5,0 C 4,4 C 99 % 1021,2 hPa 0,0 l/m 0 min 0 min 0 W/m 9,7 km/h (2 Bft) 95,74 %
24.12.2018 05:36 5,4 C 5,0 C 4,4 C 99 % 1021,3 hPa 0,0 l/m 0 min 0 min 0 W/m 6,4 km/h (2 Bft) 95,74 %
24.12.2018 05:38 5,4 C 5,0 C 4,4 C 99 % 1021,3 hPa 0,0 l/m 0 min 0 min 0 W/m 6,4 km/h (2 Bft) 93,62 %
24.12.2018 05:40 5,4 C 5,0 C 4,4 C 99 % 1021,4 hPa 0,0 l/m 0 min 0 min 0 W/m 9,7 km/h (2 Bft) 95,74 %
24.12.2018 05:42 5,4 C 5,0 C 4,4 C 99 % 1021,4 hPa 0,0 l/m 0 min 0 min 0 W/m 9,7 km/h (2 Bft) 93,62 %
24.12.2018 05:44 5,4 C 5,0 C 4,4 C 99 % 1021,5 hPa 0,0 l/m 0 min 0 min 0 W/m 12,9 km/h (3 Bft) 95,74 %
24.12.2018 05:46 5,4 C 5,0 C 4,4 C 99 % 1021,5 hPa 0,0 l/m 0 min 0 min 0 W/m 9,7 km/h (2 Bft) 95,65 %
24.12.2018 05:48 5,4 C 5,0 C 4,4 C 99 % 1021,6 hPa 0,0 l/m 0 min 0 min 0 W/m 9,7 km/h (2 Bft) 95,74 %
24.12.2018 05:50 5,4 C 5,0 C 4,4 C 99 % 1021,5 hPa 0,0 l/m 0 min 0 min 0 W/m 9,7 km/h (2 Bft) 93,62 %
24.12.2018 05:52 5,4 C 5,0 C 4,4 C 99 % 1021,6 hPa 0,0 l/m 0 min 0 min 0 W/m 9,7 km/h (2 Bft) 93,62 %
24.12.2018 05:54 5,4 C 5,0 C 4,4 C 99 % 1021,7 hPa 0,0 l/m 0 min 0 min 0 W/m 12,9 km/h (3 Bft) 95,74 %
24.12.2018 05:56 5,4 C 5,0 C 4,4 C 99 % 1021,6 hPa 0,0 l/m 0 min 0 min 0 W/m 12,9 km/h (3 Bft) 95,65 %
24.12.2018 05:58 5,4 C 5,0 C 4,4 C 99 % 1021,7 hPa 0,0 l/m 0 min 0 min 0 W/m 9,7 km/h (2 Bft) 95,74 %
24.12.2018 06:00 5,4 C 5,0 C 4,4 C 99 % 1021,8 hPa 0,0 l/m 0 min 0 min 0 W/m 12,9 km/h (3 Bft) 93,62 %
24.12.2018 06:02 5,4 C 5,0 C 4,4 C 99 % 1021,9 hPa 0,0 l/m 0 min 0 min 0 W/m 9,7 km/h (2 Bft) 93,62 %
24.12.2018 06:04 5,4 C 5,0 C 4,4 C 99 % 1021,9 hPa 0,0 l/m 0 min 0 min 0 W/m 9,7 km/h (2 Bft) 95,74 %
24.12.2018 06:08 5,4 C 5,0 C 4,4 C 99 % 1022,0 hPa 0,0 l/m 0 min 0 min 0 W/m 9,7 km/h (2 Bft) 95,70 %
24.12.2018 06:10 5,4 C 5,0 C 4,4 C 99 % 1022,1 hPa 0,0 l/m 0 min 0 min 0 W/m 9,7 km/h (2 Bft) 95,74 %
24.12.2018 06:12 5,4 C 5,0 C 4,4 C 99 % 1022,1 hPa 0,0 l/m 0 min 0 min 0 W/m 9,7 km/h (2 Bft) 98,00 %
24.12.2018 06:14 5,4 C 5,0 C 4,4 C 99 % 1022,1 hPa 0,0 l/m 0 min 0 min 0 W/m 9,7 km/h (2 Bft) 97,87 %
24.12.2018 06:16 5,4 C 5,0 C 4,4 C 99 % 1022,1 hPa 0,0 l/m 0 min 0 min 0 W/m 12,9 km/h (3 Bft) 95,74 %
24.12.2018 06:18 5,4 C 5,0 C 4,4 C 99 % 1022,2 hPa 0,0 l/m 0 min 0 min 0 W/m 9,7 km/h (2 Bft) 100,00 %
24.12.2018 06:20 5,4 C 5,0 C 4,4 C 99 % 1022,3 hPa 0,0 l/m 0 min 0 min 0 W/m 6,4 km/h (2 Bft) 95,74 %
24.12.2018 06:22 5,4 C 5,0 C 4,4 C 99 % 1022,4 hPa 0,0 l/m 0 min 0 min 0 W/m 6,4 km/h (2 Bft) 95,65 %
24.12.2018 06:24 5,4 C 5,0 C 4,4 C 99 % 1022,5 hPa 0,0 l/m 0 min 0 min 0 W/m 9,7 km/h (2 Bft) 100,00 %
24.12.2018 06:26 5,4 C 5,0 C 4,4 C 99 % 1022,4 hPa 0,0 l/m 0 min 0 min 0 W/m 9,7 km/h (2 Bft) 97,87 %
24.12.2018 06:28 5,4 C 5,0 C 4,4 C 99 % 1022,5 hPa 0,0 l/m 0 min 0 min 0 W/m 3,2 km/h (1 Bft) 100,00 %
24.12.2018 06:30 5,4 C 5,0 C 4,4 C 99 % 1022,5 hPa 0,0 l/m 0 min 0 min 0 W/m 9,7 km/h (2 Bft) 100,00 %
24.12.2018 06:32 5,4 C 5,0 C 4,4 C 99 % 1022,6 hPa 0,0 l/m 0 min 0 min 0 W/m 9,7 km/h (2 Bft) 97,87 %
24.12.2018 06:34 5,4 C 5,0 C 4,4 C 99 % 1022,7 hPa 0,0 l/m 0 min 0 min 0 W/m 12,9 km/h (3 Bft) 97,87 %
24.12.2018 06:36 5,4 C 5,0 C 4,4 C 99 % 1022,7 hPa 0,0 l/m 0 min 0 min 0 W/m 9,7 km/h (2 Bft) 97,96 %
24.12.2018 06:38 5,4 C 5,0 C 4,4 C 99 % 1022,7 hPa 0,0 l/m 0 min 0 min 0 W/m 9,7 km/h (2 Bft) 100,00 %
24.12.2018 06:40 5,4 C 5,0 C 4,4 C 99 % 1022,8 hPa 0,0 l/m 0 min 0 min 0 W/m 12,9 km/h (3 Bft) 82,98 %
24.12.2018 06:42 5,4 C 5,0 C 4,4 C 99 % 1022,8 hPa 0,0 l/m 0 min 0 min 0 W/m 12,9 km/h (3 Bft) 93,48 %
24.12.2018 06:44 5,4 C 5,0 C 4,4 C 99 % 1022,9 hPa 0,0 l/m 0 min 0 min 0 W/m 9,7 km/h (2 Bft) 97,87 %
24.12.2018 06:46 5,4 C 5,0 C 4,4 C 99 % 1022,9 hPa 0,0 l/m 0 min 0 min 0 W/m 6,4 km/h (2 Bft) 100,00 %
24.12.2018 06:48 5,4 C 5,0 C 4,4 C 99 % 1023,0 hPa 0,0 l/m 0 min 0 min 0 W/m 12,9 km/h (3 Bft) 100,00 %
24.12.2018 06:50 5,4 C 5,0 C 4,4 C 99 % 1023,0 hPa 0,0 l/m 0 min 0 min 0 W/m 6,4 km/h (2 Bft) 97,87 %
24.12.2018 06:52 5,4 C 5,0 C 4,4 C 99 % 1023,1 hPa 0,0 l/m 0 min 0 min 0 W/m 6,4 km/h (2 Bft) 97,87 %
24.12.2018 06:54 5,4 C 5,0 C 4,4 C 99 % 1023,1 hPa 0,0 l/m 0 min 0 min 0 W/m 9,7 km/h (2 Bft) 100,00 %
24.12.2018 06:56 5,4 C 5,0 C 4,4 C 99 % 1023,2 hPa 0,0 l/m 0 min 0 min 0 W/m 12,9 km/h (3 Bft) 97,87 %
24.12.2018 06:58 5,4 C 5,0 C 4,4 C 99 % 1023,2 hPa 0,0 l/m 0 min 0 min 0 W/m 6,4 km/h (2 Bft) 97,83 %
24.12.2018 07:00 5,4 C 5,0 C 4,4 C 99 % 1023,3 hPa 0,0 l/m 0 min 0 min 0 W/m 9,7 km/h (2 Bft) 97,87 %
24.12.2018 07:02 5,4 C 5,0 C 4,4 C 99 % 1023,3 hPa 0,0 l/m 0 min 0 min 0 W/m 12,9 km/h (3 Bft) 97,87 %
24.12.2018 07:04 5,4 C 5,0 C 4,4 C 99 % 1023,4 hPa 0,0 l/m 0 min 0 min 0 W/m 9,7 km/h (2 Bft) 97,87 %
24.12.2018 07:06 5,4 C 5,0 C 4,4 C 99 % 1023,5 hPa 0,0 l/m 0 min 0 min 0 W/m 19,3 km/h (3 Bft) 97,87 %
24.12.2018 07:08 5,4 C 5,0 C 4,4 C 99 % 1023,5 hPa 0,0 l/m 0 min 0 min 0 W/m 16,1 km/h (3 Bft) 97,87 %
24.12.2018 07:10 5,4 C 5,0 C 4,4 C 99 % 1023,6 hPa 0,0 l/m 0 min 0 min 0 W/m 12,9 km/h (3 Bft) 97,83 %
24.12.2018 07:12 5,4 C 5,0 C 4,4 C 99 % 1023,7 hPa 0,0 l/m 0 min 0 min 0 W/m 19,3 km/h (3 Bft) 97,87 %
24.12.2018 07:14 5,4 C 5,0 C 4,4 C 99 % 1023,8 hPa 0,0 l/m 0 min 0 min 0 W/m 16,1 km/h (3 Bft) 97,87 %
24.12.2018 07:16 5,4 C 5,0 C 4,4 C 99 % 1023,9 hPa 0,0 l/m 0 min 0 min 0 W/m 9,7 km/h (2 Bft) 97,67 %
24.12.2018 07:18 5,4 C 5,0 C 4,4 C 99 % 1023,9 hPa 0,0 l/m 0 min 0 min 0 W/m 6,4 km/h (2 Bft) 97,87 %
24.12.2018 07:20 5,4 C 5,0 C 4,4 C 99 % 1023,9 hPa 0,0 l/m 0 min 0 min 0 W/m 12,9 km/h (3 Bft) 93,75 %
24.12.2018 07:22 5,4 C 5,0 C 4,4 C 99 % 1024,0 hPa 0,0 l/m 0 min 0 min 0 W/m 16,1 km/h (3 Bft) 95,74 %
24.12.2018 07:24 5,4 C 5,0 C 4,4 C 99 % 1024,0 hPa 0,0 l/m 0 min 0 min 0 W/m 9,7 km/h (2 Bft) 97,87 %
24.12.2018 07:26 5,4 C 5,0 C 4,4 C 99 % 1024,1 hPa 0,0 l/m 0 min 0 min 0 W/m 16,1 km/h (3 Bft) 97,87 %
24.12.2018 07:28 5,4 C 5,0 C 4,4 C 99 % 1024,1 hPa 0,0 l/m 0 min 0 min 0 W/m 9,7 km/h (2 Bft) 97,87 %
24.12.2018 07:30 5,4 C 5,0 C 4,4 C 99 % 1024,2 hPa 0,0 l/m 0 min 0 min 0 W/m 6,4 km/h (2 Bft) 97,92 %
24.12.2018 07:32 5,4 C 5,0 C 4,4 C 99 % 1024,2 hPa 0,0 l/m 0 min 0 min 0 W/m 9,7 km/h (2 Bft) 97,87 %
24.12.2018 07:34 5,4 C 5,0 C 4,4 C 99 % 1024,2 hPa 0,0 l/m 0 min 0 min 0 W/m 9,7 km/h (2 Bft) 97,87 %
24.12.2018 07:36 5,4 C 5,0 C 4,4 C 99 % 1024,3 hPa 0,0 l/m 0 min 0 min 0 W/m 9,7 km/h (2 Bft) 97,87 %
24.12.2018 07:38 5,4 C 5,0 C 4,4 C 99 % 1024,3 hPa 0,0 l/m 0 min 0 min 0 W/m 16,1 km/h (3 Bft) 100,00 %
24.12.2018 07:40 5,4 C 5,0 C 4,4 C 99 % 1024,4 hPa 0,0 l/m 0 min 0 min 0 W/m 16,1 km/h (3 Bft) 97,87 %
24.12.2018 07:42 5,4 C 5,0 C 4,4 C 99 % 1024,5 hPa 0,0 l/m 0 min 0 min 0 W/m 12,9 km/h (3 Bft) 97,87 %
24.12.2018 07:44 5,4 C 5,0 C 4,4 C 99 % 1024,5 hPa 0,0 l/m 0 min 0 min 0 W/m 16,1 km/h (3 Bft) 100,00 %
24.12.2018 07:46 5,4 C 5,0 C 4,4 C 99 % 1024,5 hPa 0,0 l/m 0 min 0 min 0 W/m 6,4 km/h (2 Bft) 100,00 %
24.12.2018 07:48 5,4 C 5,0 C 4,4 C 99 % 1024,5 hPa 0,0 l/m 0 min 0 min 0 W/m 12,9 km/h (3 Bft) 100,00 %
24.12.2018 07:50 5,4 C 5,0 C 4,4 C 99 % 1024,6 hPa 0,0 l/m 0 min 0 min 0 W/m 12,9 km/h (3 Bft) 100,00 %
24.12.2018 07:52 5,4 C 5,0 C 4,4 C 99 % 1024,6 hPa 0,0 l/m 0 min 0 min 0 W/m 9,7 km/h (2 Bft) 100,00 %
24.12.2018 07:54 5,4 C 5,0 C 4,4 C 99 % 1024,7 hPa 0,0 l/m 0 min 0 min 0 W/m 6,4 km/h (2 Bft) 100,00 %
24.12.2018 07:56 5,4 C 5,0 C 4,4 C 99 % 1024,7 hPa 0,0 l/m 0 min 0 min 0 W/m 6,4 km/h (2 Bft) 100,00 %
24.12.2018 07:58 5,4 C 5,0 C 4,4 C 99 % 1024,7 hPa 0,0 l/m 0 min 0 min 0 W/m 9,7 km/h (2 Bft) 100,00 %
24.12.2018 08:00 5,4 C 5,0 C 4,4 C 99 % 1024,8 hPa 0,0 l/m 0 min 0 min 0 W/m 6,4 km/h (2 Bft) 97,87 %
24.12.2018 08:02 5,4 C 5,0 C 4,4 C 99 % 1024,8 hPa 0,0 l/m 0 min 0 min 0 W/m 3,2 km/h (1 Bft) 97,73 %
24.12.2018 08:04 5,4 C 5,0 C 4,4 C 99 % 1024,8 hPa 0,0 l/m 0 min 0 min 0 W/m 3,2 km/h (1 Bft) 100,00 %
24.12.2018 08:06 5,3 C 5,0 C 4,4 C 99 % 1024,9 hPa 0,0 l/m 0 min 0 min 0 W/m 3,2 km/h (1 Bft) 95,65 %
24.12.2018 08:08 5,4 C 4,4 C 4,4 C 99 % 1024,9 hPa 0,0 l/m 0 min 0 min 0 W/m 9,7 km/h (2 Bft) 97,87 %
24.12.2018 08:10 5,3 C 4,4 C 4,4 C 99 % 1024,9 hPa 0,0 l/m 0 min 0 min 0 W/m 6,4 km/h (2 Bft) 93,62 %
24.12.2018 08:12 5,3 C 4,4 C 4,4 C 99 % 1024,9 hPa 0,0 l/m 0 min 0 min 0 W/m 9,7 km/h (2 Bft) 95,74 %
24.12.2018 08:14 5,3 C 4,4 C 4,4 C 99 % 1025,0 hPa 0,0 l/m 0 min 0 min 0 W/m 6,4 km/h (2 Bft) 97,96 %
24.12.2018 08:16 5,3 C 4,4 C 4,4 C 99 % 1025,0 hPa 0,0 l/m 0 min 0 min 0 W/m 12,9 km/h (3 Bft) 91,30 %
24.12.2018 08:18 5,3 C 4,4 C 4,4 C 99 % 1025,1 hPa 0,0 l/m 0 min 0 min 0 W/m 9,7 km/h (2 Bft) 95,92 %
24.12.2018 08:20 5,3 C 4,4 C 4,4 C 99 % 1025,1 hPa 0,0 l/m 0 min 0 min 0 W/m 16,1 km/h (3 Bft) 98,11 %
24.12.2018 08:22 5,3 C 4,4 C 4,4 C 99 % 1025,0 hPa 0,0 l/m 0 min 0 min 0 W/m 9,7 km/h (2 Bft) 97,87 %
24.12.2018 08:24 5,3 C 4,4 C 4,4 C 99 % 1025,0 hPa 0,0 l/m 0 min 0 min 0 W/m 6,4 km/h (2 Bft) 97,87 %
24.12.2018 08:26 5,3 C 4,4 C 4,4 C 99 % 1025,0 hPa 0,0 l/m 0 min 0 min 0 W/m 0,0 km/h (0 Bft) 97,87 %
24.12.2018 08:28 5,3 C 4,4 C 4,4 C 99 % 1025,0 hPa 0,0 l/m 0 min 0 min 0 W/m 9,7 km/h (2 Bft) 97,83 %
24.12.2018 08:30 5,3 C 4,4 C 4,4 C 99 % 1025,1 hPa 0,0 l/m 0 min 0 min 0 W/m 6,4 km/h (2 Bft) 97,87 %
24.12.2018 08:32 5,3 C 4,4 C 4,4 C 99 % 1025,1 hPa 0,0 l/m 0 min 0 min 0 W/m 6,4 km/h (2 Bft) 95,74 %
24.12.2018 08:34 5,3 C 4,4 C 4,4 C 99 % 1025,2 hPa 0,0 l/m 0 min 0 min 0 W/m 6,4 km/h (2 Bft) 95,74 %
24.12.2018 08:36 5,3 C 4,4 C 4,4 C 99 % 1025,2 hPa 0,0 l/m 0 min 0 min 0 W/m 6,4 km/h (2 Bft) 95,74 %
24.12.2018 08:38 5,3 C 4,4 C 4,4 C 99 % 1025,2 hPa 0,0 l/m 0 min 0 min 0 W/m 3,2 km/h (1 Bft) 93,62 %
24.12.2018 08:40 5,3 C 4,4 C 4,4 C 99 % 1025,3 hPa 0,0 l/m 0 min 0 min 0 W/m 6,4 km/h (2 Bft) 97,83 %
24.12.2018 08:42 5,3 C 4,4 C 4,4 C 99 % 1025,4 hPa 0,0 l/m 0 min 0 min 0 W/m 0,0 km/h (0 Bft) 95,74 %
24.12.2018 08:44 5,3 C 4,4 C 4,4 C 99 % 1025,4 hPa 0,0 l/m 0 min 0 min 0 W/m 3,2 km/h (1 Bft) 95,74 %
24.12.2018 08:46 5,3 C 4,4 C 4,4 C 99 % 1025,5 hPa 0,0 l/m 0 min 0 min 0 W/m 6,4 km/h (2 Bft) 95,35 %
24.12.2018 08:48 5,3 C 4,4 C 4,4 C 99 % 1025,4 hPa 0,0 l/m 0 min 0 min 0 W/m 9,7 km/h (2 Bft) 97,87 %
24.12.2018 08:50 5,3 C 4,4 C 4,4 C 99 % 1025,4 hPa 0,0 l/m 0 min 0 min 5 W/m 6,4 km/h (2 Bft) 95,83 %
24.12.2018 08:52 5,3 C 4,4 C 4,4 C 99 % 1025,5 hPa 0,0 l/m 0 min 0 min 5 W/m 6,4 km/h (2 Bft) 97,87 %
24.12.2018 08:54 5,3 C 4,4 C 4,4 C 99 % 1025,5 hPa 0,0 l/m 0 min 0 min 5 W/m 12,9 km/h (3 Bft) 93,62 %
24.12.2018 08:56 5,3 C 4,4 C 4,4 C 99 % 1025,6 hPa 0,0 l/m 0 min 0 min 6 W/m 6,4 km/h (2 Bft) 97,87 %
24.12.2018 08:58 5,3 C 4,4 C 4,4 C 99 % 1025,7 hPa 0,0 l/m 0 min 0 min 7 W/m 9,7 km/h (2 Bft) 97,96 %
24.12.2018 09:00 5,3 C 4,4 C 4,4 C 99 % 1025,7 hPa 0,0 l/m 0 min 0 min 7 W/m 12,9 km/h (3 Bft) 95,74 %
24.12.2018 09:02 5,3 C 4,4 C 4,4 C 99 % 1025,8 hPa 0,0 l/m 0 min 0 min 7 W/m 6,4 km/h (2 Bft) 97,87 %
24.12.2018 09:04 5,3 C 4,4 C 4,4 C 99 % 1025,8 hPa 0,0 l/m 0 min 0 min 7 W/m 6,4 km/h (2 Bft) 95,65 %
24.12.2018 09:06 5,3 C 4,4 C 4,4 C 99 % 1025,8 hPa 0,0 l/m 0 min 0 min 7 W/m 9,7 km/h (2 Bft) 97,87 %
24.12.2018 09:08 5,3 C 5,0 C 4,4 C 99 % 1025,7 hPa 0,0 l/m 0 min 0 min 7 W/m 6,4 km/h (2 Bft) 97,87 %
24.12.2018 09:10 5,3 C 5,0 C 4,4 C 99 % 1025,8 hPa 0,0 l/m 0 min 0 min 7 W/m 6,4 km/h (2 Bft) 97,87 %
24.12.2018 09:12 5,3 C 5,0 C 4,4 C 99 % 1025,8 hPa 0,0 l/m 0 min 0 min 7 W/m 3,2 km/h (1 Bft) 95,74 %
24.12.2018 09:14 5,3 C 5,0 C 4,4 C 99 % 1025,8 hPa 0,0 l/m 0 min 0 min 8 W/m 6,4 km/h (2 Bft) 97,83 %
24.12.2018 09:16 5,3 C 4,4 C 4,4 C 99 % 1025,9 hPa 0,0 l/m 0 min 0 min 9 W/m 9,7 km/h (2 Bft) 95,74 %
24.12.2018 09:18 5,3 C 4,4 C 4,4 C 99 % 1026,0 hPa 0,0 l/m 0 min 0 min 9 W/m 9,7 km/h (2 Bft) 97,87 %
24.12.2018 09:20 5,3 C 5,0 C 4,4 C 99 % 1026,0 hPa 0,0 l/m 0 min 0 min 11 W/m 6,4 km/h (2 Bft) 95,74 %
24.12.2018 09:22 5,3 C 5,0 C 4,4 C 99 % 1026,0 hPa 0,0 l/m 0 min 0 min 12 W/m 6,4 km/h (2 Bft) 97,87 %
24.12.2018 09:24 5,3 C 5,0 C 4,4 C 99 % 1026,0 hPa 0,0 l/m 0 min 0 min 13 W/m 6,4 km/h (2 Bft) 97,87 %
24.12.2018 09:26 5,3 C 5,0 C 4,4 C 99 % 1026,0 hPa 0,0 l/m 0 min 0 min 14 W/m 6,4 km/h (2 Bft) 97,83 %
24.12.2018 09:28 5,3 C 5,0 C 4,4 C 99 % 1026,1 hPa 0,0 l/m 0 min 0 min 14 W/m 9,7 km/h (2 Bft) 93,62 %
24.12.2018 09:30 5,3 C 5,0 C 4,4 C 99 % 1026,2 hPa 0,0 l/m 0 min 0 min 14 W/m 9,7 km/h (2 Bft) 97,87 %
24.12.2018 09:32 5,2 C 5,0 C 4,4 C 99 % 1026,2 hPa 0,0 l/m 0 min 0 min 15 W/m 6,4 km/h (2 Bft) 100,00 %
24.12.2018 09:34 5,2 C 5,0 C 4,4 C 99 % 1026,3 hPa 0,0 l/m 0 min 0 min 18 W/m 12,9 km/h (3 Bft) 97,87 %
24.12.2018 09:36 5,2 C 5,0 C 4,4 C 99 % 1026,3 hPa 0,0 l/m 0 min 0 min 18 W/m 9,7 km/h (2 Bft) 97,87 %
24.12.2018 09:38 5,2 C 5,0 C 4,4 C 99 % 1026,4 hPa 0,0 l/m 0 min 0 min 20 W/m 12,9 km/h (3 Bft) 95,65 %
24.12.2018 09:40 5,2 C 5,0 C 4,4 C 99 % 1026,4 hPa 0,0 l/m 0 min 0 min 22 W/m 9,7 km/h (2 Bft) 93,62 %
24.12.2018 09:42 5,2 C 5,0 C 4,4 C 99 % 1026,5 hPa 0,0 l/m 0 min 0 min 25 W/m 6,4 km/h (2 Bft) 97,87 %
24.12.2018 09:44 5,2 C 5,0 C 4,4 C 99 % 1026,5 hPa 0,0 l/m 0 min 0 min 25 W/m 9,7 km/h (2 Bft) 97,87 %
24.12.2018 09:46 5,2 C 5,0 C 4,4 C 99 % 1026,5 hPa 0,0 l/m 0 min 0 min 26 W/m 9,7 km/h (2 Bft) 97,87 %
24.12.2018 09:48 5,2 C 5,0 C 4,4 C 99 % 1026,5 hPa 0,0 l/m 0 min 0 min 26 W/m 9,7 km/h (2 Bft) 97,56 %
24.12.2018 09:50 5,2 C 5,0 C 4,4 C 99 % 1026,6 hPa 0,0 l/m 0 min 0 min 26 W/m 6,4 km/h (2 Bft) 95,74 %
24.12.2018 09:52 5,2 C 5,0 C 4,4 C 99 % 1026,7 hPa 0,0 l/m 0 min 0 min 28 W/m 16,1 km/h (3 Bft) 98,00 %
24.12.2018 09:54 5,2 C 5,0 C 4,4 C 99 % 1026,8 hPa 0,0 l/m 0 min 0 min 28 W/m 9,7 km/h (2 Bft) 97,87 %
24.12.2018 09:56 5,2 C 5,0 C 4,4 C 99 % 1026,9 hPa 0,0 l/m 0 min 0 min 28 W/m 12,9 km/h (3 Bft) 95,92 %
24.12.2018 09:58 5,2 C 5,0 C 4,4 C 99 % 1027,0 hPa 0,0 l/m 0 min 0 min 30 W/m 12,9 km/h (3 Bft) 97,87 %
24.12.2018 10:00 5,2 C 5,0 C 4,4 C 99 % 1027,0 hPa 0,0 l/m 0 min 0 min 28 W/m 12,9 km/h (3 Bft) 95,65 %
24.12.2018 10:02 5,2 C 5,0 C 4,4 C 99 % 1027,1 hPa 0,0 l/m 0 min 0 min 27 W/m 12,9 km/h (3 Bft) 97,87 %
24.12.2018 10:04 5,2 C 5,0 C 4,4 C 99 % 1027,0 hPa 0,0 l/m 0 min 0 min 32 W/m 12,9 km/h (3 Bft) 97,87 %
24.12.2018 10:06 5,2 C 5,0 C 4,4 C 99 % 1027,2 hPa 0,0 l/m 0 min 0 min 30 W/m 16,1 km/h (3 Bft) 95,74 %
24.12.2018 10:08 5,2 C 5,0 C 4,4 C 99 % 1027,1 hPa 0,0 l/m 0 min 0 min 29 W/m 12,9 km/h (3 Bft) 97,87 %
24.12.2018 10:10 5,2 C 5,0 C 4,4 C 99 % 1027,2 hPa 0,0 l/m 0 min 0 min 31 W/m 6,4 km/h (2 Bft) 97,83 %
24.12.2018 10:12 5,2 C 5,0 C 4,4 C 99 % 1027,2 hPa 0,0 l/m 0 min 0 min 33 W/m 16,1 km/h (3 Bft) 97,87 %
24.12.2018 10:14 5,2 C 5,0 C 4,4 C 99 % 1027,3 hPa 0,0 l/m 0 min 0 min 32 W/m 9,7 km/h (2 Bft) 95,74 %
24.12.2018 10:16 5,2 C 5,0 C 4,4 C 99 % 1027,4 hPa 0,0 l/m 0 min 0 min 27 W/m 6,4 km/h (2 Bft) 97,87 %
24.12.2018 10:18 5,2 C 5,0 C 4,4 C 99 % 1027,4 hPa 0,0 l/m 0 min 0 min 28 W/m 16,1 km/h (3 Bft) 97,87 %
24.12.2018 10:20 5,2 C 5,0 C 4,4 C 99 % 1027,5 hPa 0,0 l/m 0 min 0 min 35 W/m 16,1 km/h (3 Bft) 95,74 %
24.12.2018 10:22 5,2 C 5,0 C 4,4 C 99 % 1027,6 hPa 0,0 l/m 0 min 0 min 34 W/m 12,9 km/h (3 Bft) 95,74 %
24.12.2018 10:24 5,2 C 5,0 C 4,4 C 99 % 1027,6 hPa 0,0 l/m 0 min 0 min 31 W/m 9,7 km/h (2 Bft) 97,87 %
24.12.2018 10:26 5,2 C 5,0 C 4,4 C 99 % 1027,7 hPa 0,0 l/m 0 min 0 min 28 W/m 9,7 km/h (2 Bft) 100,00 %
24.12.2018 10:28 5,2 C 5,0 C 4,4 C 99 % 1027,8 hPa 0,0 l/m 0 min 0 min 20 W/m 9,7 km/h (2 Bft) 97,87 %
24.12.2018 10:30 5,2 C 5,0 C 4,4 C 99 % 1027,8 hPa 0,0 l/m 0 min 0 min 20 W/m 12,9 km/h (3 Bft) 100,00 %
24.12.2018 10:32 5,2 C 5,0 C 4,4 C 99 % 1027,8 hPa 0,0 l/m 0 min 0 min 18 W/m 9,7 km/h (2 Bft) 100,00 %
24.12.2018 10:34 5,2 C 5,0 C 4,4 C 99 % 1027,9 hPa 0,0 l/m 0 min 0 min 15 W/m 9,7 km/h (2 Bft) 97,87 %
24.12.2018 10:36 5,2 C 5,0 C 4,4 C 99 % 1028,0 hPa 0,0 l/m 0 min 2 min 16 W/m 6,4 km/h (2 Bft) 97,83 %
24.12.2018 10:38 5,2 C 5,0 C 4,4 C 99 % 1028,0 hPa 0,0 l/m 0 min 0 min 16 W/m 12,9 km/h (3 Bft) 97,87 %
24.12.2018 10:40 5,2 C 5,0 C 4,4 C 99 % 1028,0 hPa 0,0 l/m 0 min 0 min 17 W/m 9,7 km/h (2 Bft) 100,00 %
24.12.2018 10:42 5,2 C 5,0 C 4,4 C 99 % 1028,0 hPa 0,0 l/m 0 min 0 min 16 W/m 12,9 km/h (3 Bft) 97,87 %
24.12.2018 10:44 5,3 C 5,0 C 4,4 C 99 % 1028,0 hPa 0,0 l/m 0 min 0 min 16 W/m 16,1 km/h (3 Bft) 97,87 %
24.12.2018 10:46 5,2 C 5,0 C 4,4 C 99 % 1028,0 hPa 0,0 l/m 0 min 0 min 19 W/m 12,9 km/h (3 Bft) 97,62 %
24.12.2018 10:48 5,2 C 4,4 C 4,4 C 99 % 1028,0 hPa 0,0 l/m 0 min 0 min 20 W/m 19,3 km/h (3 Bft) 97,87 %
24.12.2018 10:50 5,2 C 4,4 C 4,4 C 99 % 1028,1 hPa 0,2 l/m 0 min 0 min 33 W/m 29,0 km/h (5 Bft) 95,92 %
24.12.2018 10:52 5,2 C 4,4 C 4,4 C 99 % 1028,0 hPa 0,0 l/m 0 min 0 min 42 W/m 19,3 km/h (3 Bft) 97,87 %
24.12.2018 10:54 5,2 C 5,0 C 4,4 C 99 % 1028,1 hPa 0,0 l/m 0 min 0 min 43 W/m 9,7 km/h (2 Bft) 95,74 %
24.12.2018 10:56 5,2 C 5,0 C 4,4 C 99 % 1028,1 hPa 0,0 l/m 0 min 0 min 44 W/m 12,9 km/h (3 Bft) 97,96 %
24.12.2018 10:58 5,1 C 4,4 C 4,4 C 99 % 1028,2 hPa 0,0 l/m 0 min 0 min 47 W/m 25,7 km/h (4 Bft) 97,83 %
24.12.2018 11:00 5,1 C 4,4 C 4,4 C 99 % 1028,4 hPa 0,0 l/m 0 min 0 min 54 W/m 16,1 km/h (3 Bft) 95,74 %
24.12.2018 11:02 5,1 C 4,4 C 4,4 C 99 % 1028,4 hPa 0,0 l/m 0 min 0 min 53 W/m 22,5 km/h (4 Bft) 97,87 %
24.12.2018 11:04 5,1 C 4,4 C 4,4 C 99 % 1028,5 hPa 0,0 l/m 0 min 0 min 44 W/m 16,1 km/h (3 Bft) 97,87 %
24.12.2018 11:06 5,0 C 4,4 C 3,9 C 99 % 1028,4 hPa 0,0 l/m 0 min 0 min 35 W/m 19,3 km/h (3 Bft) 97,87 %
24.12.2018 11:08 4,9 C 4,4 C 3,9 C 99 % 1028,4 hPa 0,0 l/m 0 min 0 min 30 W/m 16,1 km/h (3 Bft) 97,92 %
24.12.2018 11:10 4,9 C 5,0 C 3,9 C 99 % 1028,4 hPa 0,0 l/m 0 min 0 min 34 W/m 12,9 km/h (3 Bft) 97,14 %
24.12.2018 11:12 4,9 C 7,8 C 3,9 C 98 % 1028,4 hPa 0,0 l/m 2 min 0 min 154 W/m 12,9 km/h (3 Bft) 97,87 %
24.12.2018 11:14 4,9 C 9,4 C 3,9 C 99 % 1028,4 hPa 0,0 l/m 2 min 0 min 230 W/m 12,9 km/h (3 Bft) 96,55 %
24.12.2018 11:16 4,9 C 10,0 C 3,9 C 99 % 1028,4 hPa 0,0 l/m 2 min 0 min 225 W/m 16,1 km/h (3 Bft) 94,29 %
24.12.2018 11:18 5,0 C 11,1 C 3,9 C 99 % 1028,4 hPa 0,0 l/m 2 min 0 min 232 W/m 16,1 km/h (3 Bft) 97,87 %
24.12.2018 11:20 5,1 C 11,7 C 3,9 C 98 % 1028,4 hPa 0,0 l/m 2 min 0 min 238 W/m 9,7 km/h (2 Bft) 100,00 %
24.12.2018 11:22 5,2 C 11,7 C 3,9 C 98 % 1028,5 hPa 0,0 l/m 2 min 0 min 239 W/m 12,9 km/h (3 Bft) 100,00 %
24.12.2018 11:24 5,2 C 12,8 C 3,9 C 99 % 1028,5 hPa 0,0 l/m 2 min 0 min 243 W/m 6,4 km/h (2 Bft) 100,00 %
24.12.2018 11:26 5,3 C 12,2 C 3,9 C 99 % 1028,5 hPa 0,0 l/m 2 min 0 min 244 W/m 6,4 km/h (2 Bft) 100,00 %
24.12.2018 11:28 5,4 C 12,2 C 3,9 C 99 % 1028,5 hPa 0,0 l/m 2 min 0 min 245 W/m 12,9 km/h (3 Bft) 93,62 %
24.12.2018 11:30 5,5 C 12,8 C 3,9 C 98 % 1028,5 hPa 0,0 l/m 2 min 0 min 247 W/m 12,9 km/h (3 Bft) 100,00 %
24.12.2018 11:32 5,6 C 12,8 C 3,9 C 98 % 1028,5 hPa 0,0 l/m 2 min 0 min 248 W/m 12,9 km/h (3 Bft) 97,87 %
24.12.2018 11:34 5,7 C 13,9 C 3,9 C 99 % 1028,5 hPa 0,0 l/m 2 min 0 min 248 W/m 9,7 km/h (2 Bft) 100,00 %
24.12.2018 11:36 5,7 C 14,4 C 3,9 C 99 % 1028,5 hPa 0,0 l/m 2 min 0 min 253 W/m 9,7 km/h (2 Bft) 100,00 %
24.12.2018 11:38 5,8 C 14,4 C 3,9 C 98 % 1028,5 hPa 0,0 l/m 2 min 0 min 255 W/m 9,7 km/h (2 Bft) 95,92 %
24.12.2018 11:40 5,8 C 15,0 C 3,9 C 98 % 1028,5 hPa 0,0 l/m 2 min 0 min 256 W/m 6,4 km/h (2 Bft) 97,87 %
24.12.2018 11:42 5,9 C 15,0 C 3,9 C 99 % 1028,5 hPa 0,0 l/m 2 min 0 min 257 W/m 12,9 km/h (3 Bft) 97,87 %
24.12.2018 11:44 6,0 C 14,4 C 3,9 C 99 % 1028,5 hPa 0,0 l/m 2 min 0 min 259 W/m 12,9 km/h (3 Bft) 97,83 %
24.12.2018 11:46 6,1 C 15,0 C 3,9 C 99 % 1028,5 hPa 0,0 l/m 2 min 0 min 264 W/m 12,9 km/h (3 Bft) 97,87 %
24.12.2018 11:48 6,1 C 15,0 C 3,9 C 98 % 1028,6 hPa 0,0 l/m 2 min 0 min 268 W/m 9,7 km/h (2 Bft) 97,87 %
24.12.2018 11:50 6,2 C 15,6 C 3,9 C 98 % 1028,5 hPa 0,0 l/m 2 min 0 min 268 W/m 9,7 km/h (2 Bft) 95,74 %
24.12.2018 11:52 6,2 C 14,4 C 3,9 C 98 % 1028,5 hPa 0,0 l/m 2 min 0 min 269 W/m 12,9 km/h (3 Bft) 97,87 %
24.12.2018 11:54 6,2 C 13,9 C 3,9 C 98 % 1028,4 hPa 0,0 l/m 2 min 0 min 272 W/m 19,3 km/h (3 Bft) 97,87 %
24.12.2018 11:56 6,2 C 14,4 C 3,9 C 98 % 1028,5 hPa 0,0 l/m 2 min 0 min 275 W/m 6,4 km/h (2 Bft) 95,24 %
24.12.2018 11:58 6,3 C 14,4 C 3,9 C 98 % 1028,5 hPa 0,0 l/m 2 min 0 min 275 W/m 16,1 km/h (3 Bft) 95,92 %
24.12.2018 12:00 6,3 C 13,9 C 3,9 C 98 % 1028,5 hPa 0,0 l/m 2 min 0 min 276 W/m 12,9 km/h (3 Bft) 97,87 %
24.12.2018 12:02 6,4 C 12,8 C 3,9 C 98 % 1028,4 hPa 0,0 l/m 2 min 0 min 276 W/m 16,1 km/h (3 Bft) 100,00 %
24.12.2018 12:04 6,4 C 11,7 C 3,9 C 98 % 1028,6 hPa 0,0 l/m 2 min 0 min 280 W/m 19,3 km/h (3 Bft) 96,61 %
24.12.2018 12:08 6,4 C 12,8 C 4,4 C 97 % 1028,7 hPa 0,0 l/m 4 min 0 min 291 W/m 16,1 km/h (3 Bft) 97,85 %
24.12.2018 12:10 6,5 C 13,3 C 4,4 C 96 % 1028,8 hPa 0,0 l/m 2 min 0 min 287 W/m 9,7 km/h (2 Bft) 100,00 %
24.12.2018 12:12 6,6 C 14,4 C 4,4 C 96 % 1028,8 hPa 0,0 l/m 2 min 0 min 282 W/m 9,7 km/h (2 Bft) 97,87 %
24.12.2018 12:14 6,6 C 15,0 C 4,4 C 95 % 1028,8 hPa 0,0 l/m 2 min 0 min 280 W/m 9,7 km/h (2 Bft) 97,87 %
24.12.2018 12:16 6,7 C 15,0 C 4,4 C 95 % 1028,8 hPa 0,0 l/m 2 min 0 min 274 W/m 19,3 km/h (3 Bft) 97,87 %
24.12.2018 12:18 6,8 C 14,4 C 4,4 C 94 % 1028,9 hPa 0,0 l/m 2 min 0 min 286 W/m 19,3 km/h (3 Bft) 97,87 %
24.12.2018 12:20 6,8 C 15,0 C 4,4 C 94 % 1028,8 hPa 0,0 l/m 2 min 0 min 290 W/m 19,3 km/h (3 Bft) 100,00 %
24.12.2018 12:22 6,9 C 15,0 C 4,4 C 93 % 1028,9 hPa 0,0 l/m 2 min 0 min 294 W/m 25,7 km/h (4 Bft) 100,00 %
24.12.2018 12:24 6,9 C 13,9 C 4,4 C 91 % 1028,8 hPa 0,0 l/m 2 min 0 min 294 W/m 19,3 km/h (3 Bft) 100,00 %
24.12.2018 12:26 7,0 C 14,4 C 4,4 C 91 % 1028,9 hPa 0,0 l/m 2 min 0 min 291 W/m 6,4 km/h (2 Bft) 100,00 %
24.12.2018 12:28 7,1 C 13,9 C 4,4 C 90 % 1028,9 hPa 0,0 l/m 2 min 0 min 273 W/m 12,9 km/h (3 Bft) 100,00 %
24.12.2018 12:30 7,1 C 13,3 C 4,4 C 89 % 1028,9 hPa 0,0 l/m 2 min 0 min 204 W/m 25,7 km/h (4 Bft) 100,00 %
24.12.2018 12:32 7,1 C 13,3 C 4,4 C 88 % 1028,9 hPa 0,0 l/m 2 min 0 min 308 W/m 19,3 km/h (3 Bft) 100,00 %
24.12.2018 12:34 7,2 C 14,4 C 4,4 C 87 % 1028,9 hPa 0,0 l/m 2 min 0 min 303 W/m 16,1 km/h (3 Bft) 100,00 %
24.12.2018 12:36 7,2 C 15,0 C 4,4 C 87 % 1028,9 hPa 0,0 l/m 2 min 0 min 302 W/m 19,3 km/h (3 Bft) 100,00 %
24.12.2018 12:38 7,2 C 15,0 C 4,4 C 86 % 1028,8 hPa 0,0 l/m 2 min 0 min 306 W/m 22,5 km/h (4 Bft) 100,00 %
24.12.2018 12:40 7,3 C 15,6 C 4,4 C 85 % 1028,8 hPa 0,0 l/m 2 min 0 min 304 W/m 12,9 km/h (3 Bft) 100,00 %
24.12.2018 12:42 7,3 C 15,0 C 4,4 C 84 % 1028,8 hPa 0,0 l/m 2 min 0 min 306 W/m 19,3 km/h (3 Bft) 100,00 %
24.12.2018 12:44 7,4 C 15,6 C 4,4 C 84 % 1028,8 hPa 0,0 l/m 2 min 0 min 301 W/m 29,0 km/h (5 Bft) 100,00 %
24.12.2018 12:46 7,4 C 15,6 C 4,4 C 83 % 1028,9 hPa 0,0 l/m 2 min 0 min 294 W/m 12,9 km/h (3 Bft) 97,83 %
24.12.2018 12:48 7,5 C 16,1 C 4,4 C 83 % 1028,9 hPa 0,0 l/m 2 min 0 min 299 W/m 6,4 km/h (2 Bft) 95,83 %
24.12.2018 12:50 7,6 C 16,1 C 4,4 C 83 % 1028,8 hPa 0,0 l/m 2 min 0 min 297 W/m 22,5 km/h (4 Bft) 97,87 %
24.12.2018 12:52 7,6 C 16,1 C 4,4 C 82 % 1028,8 hPa 0,0 l/m 2 min 0 min 293 W/m 12,9 km/h (3 Bft) 97,87 %
24.12.2018 12:54 7,7 C 16,1 C 4,4 C 82 % 1028,7 hPa 0,0 l/m 2 min 0 min 292 W/m 16,1 km/h (3 Bft) 97,87 %
24.12.2018 12:56 7,7 C 16,1 C 4,4 C 82 % 1028,8 hPa 0,0 l/m 2 min 0 min 291 W/m 9,7 km/h (2 Bft) 97,87 %
24.12.2018 12:58 7,8 C 16,1 C 4,4 C 81 % 1028,9 hPa 0,0 l/m 2 min 0 min 291 W/m 12,9 km/h (3 Bft) 95,74 %
24.12.2018 13:00 7,8 C 15,6 C 4,4 C 81 % 1028,9 hPa 0,0 l/m 2 min 0 min 290 W/m 16,1 km/h (3 Bft) 97,83 %
24.12.2018 13:02 7,8 C 15,6 C 4,4 C 81 % 1028,9 hPa 0,0 l/m 2 min 0 min 290 W/m 12,9 km/h (3 Bft) 97,62 %
24.12.2018 13:04 7,9 C 15,6 C 4,4 C 79 % 1028,8 hPa 0,0 l/m 2 min 0 min 288 W/m 16,1 km/h (3 Bft) 97,87 %
24.12.2018 13:06 7,9 C 15,0 C 4,4 C 79 % 1028,9 hPa 0,0 l/m 2 min 0 min 288 W/m 22,5 km/h (4 Bft) 98,28 %
24.12.2018 13:08 7,9 C 15,0 C 4,4 C 78 % 1029,0 hPa 0,0 l/m 2 min 0 min 288 W/m 16,1 km/h (3 Bft) 93,33 %
24.12.2018 13:10 7,9 C 15,0 C 4,4 C 78 % 1029,0 hPa 0,0 l/m 2 min 0 min 288 W/m 6,4 km/h (2 Bft) 97,83 %
24.12.2018 13:12 7,9 C 15,0 C 4,4 C 78 % 1029,1 hPa 0,0 l/m 2 min 0 min 288 W/m 22,5 km/h (4 Bft) 97,87 %
24.12.2018 13:14 7,9 C 15,0 C 4,4 C 78 % 1029,1 hPa 0,0 l/m 2 min 0 min 291 W/m 12,9 km/h (3 Bft) 95,74 %
24.12.2018 13:16 8,0 C 15,6 C 4,4 C 78 % 1029,1 hPa 0,0 l/m 2 min 0 min 294 W/m 12,9 km/h (3 Bft) 97,87 %
24.12.2018 13:18 8,0 C 15,6 C 4,4 C 78 % 1029,1 hPa 0,0 l/m 2 min 0 min 292 W/m 19,3 km/h (3 Bft) 95,74 %
24.12.2018 13:20 8,0 C 15,6 C 4,4 C 78 % 1029,1 hPa 0,0 l/m 2 min 0 min 293 W/m 16,1 km/h (3 Bft) 93,62 %
24.12.2018 13:22 8,1 C 15,6 C 4,4 C 77 % 1029,2 hPa 0,0 l/m 2 min 0 min 290 W/m 19,3 km/h (3 Bft) 95,65 %
24.12.2018 13:24 8,1 C 15,6 C 5,0 C 77 % 1029,2 hPa 0,0 l/m 2 min 0 min 290 W/m 9,7 km/h (2 Bft) 97,67 %
24.12.2018 13:26 8,1 C 15,6 C 5,0 C 77 % 1029,2 hPa 0,0 l/m 2 min 0 min 290 W/m 19,3 km/h (3 Bft) 97,87 %
24.12.2018 13:28 8,1 C 15,6 C 4,4 C 77 % 1029,3 hPa 0,0 l/m 2 min 0 min 292 W/m 12,9 km/h (3 Bft) 97,87 %
24.12.2018 13:30 8,1 C 15,6 C 4,4 C 77 % 1029,2 hPa 0,0 l/m 2 min 0 min 288 W/m 19,3 km/h (3 Bft) 97,87 %
24.12.2018 13:32 8,2 C 15,6 C 4,4 C 77 % 1029,3 hPa 0,0 l/m 2 min 0 min 260 W/m 9,7 km/h (2 Bft) 97,83 %
24.12.2018 13:34 8,2 C 16,1 C 4,4 C 77 % 1029,3 hPa 0,0 l/m 2 min 0 min 290 W/m 9,7 km/h (2 Bft) 100,00 %
24.12.2018 13:36 8,2 C 13,3 C 4,4 C 78 % 1029,3 hPa 0,0 l/m 2 min 0 min 250 W/m 12,9 km/h (3 Bft) 97,87 %
24.12.2018 13:38 8,1 C 12,2 C 4,4 C 76 % 1029,3 hPa 0,0 l/m 0 min 0 min 62 W/m 9,7 km/h (2 Bft) 97,87 %
24.12.2018 13:40 8,1 C 12,8 C 4,4 C 76 % 1029,3 hPa 0,0 l/m 2 min 0 min 239 W/m 12,9 km/h (3 Bft) 93,62 %
24.12.2018 13:42 8,1 C 12,8 C 4,4 C 76 % 1029,4 hPa 0,0 l/m 2 min 0 min 250 W/m 9,7 km/h (2 Bft) 97,87 %
24.12.2018 13:44 8,1 C 10,6 C 4,4 C 76 % 1029,5 hPa 0,0 l/m 0 min 0 min 71 W/m 9,7 km/h (2 Bft) 95,65 %
24.12.2018 13:46 8,1 C 11,7 C 4,4 C 76 % 1029,5 hPa 0,0 l/m 2 min 0 min 137 W/m 12,9 km/h (3 Bft) 95,74 %
24.12.2018 13:48 8,0 C 12,8 C 4,4 C 77 % 1029,5 hPa 0,0 l/m 2 min 0 min 260 W/m 12,9 km/h (3 Bft) 95,74 %
24.12.2018 13:50 8,0 C 13,9 C 5,0 C 77 % 1029,5 hPa 0,0 l/m 2 min 0 min 282 W/m 9,7 km/h (2 Bft) 95,74 %
24.12.2018 13:52 8,0 C 15,0 C 5,0 C 77 % 1029,6 hPa 0,0 l/m 2 min 0 min 284 W/m 16,1 km/h (3 Bft) 93,62 %
24.12.2018 13:54 8,1 C 15,0 C 5,6 C 77 % 1029,6 hPa 0,0 l/m 2 min 0 min 288 W/m 19,3 km/h (3 Bft) 93,88 %
24.12.2018 13:56 8,1 C 15,0 C 5,6 C 76 % 1029,6 hPa 0,0 l/m 2 min 0 min 292 W/m 9,7 km/h (2 Bft) 95,65 %
24.12.2018 13:58 8,1 C 14,4 C 6,1 C 77 % 1029,5 hPa 0,0 l/m 2 min 0 min 247 W/m 9,7 km/h (2 Bft) 97,96 %
24.12.2018 14:00 8,1 C 13,9 C 6,1 C 76 % 1029,5 hPa 0,0 l/m 2 min 0 min 203 W/m 19,3 km/h (3 Bft) 95,74 %
24.12.2018 14:02 8,1 C 11,1 C 6,1 C 76 % 1029,5 hPa 0,0 l/m 2 min 0 min 182 W/m 16,1 km/h (3 Bft) 95,74 %
24.12.2018 14:04 8,0 C 9,4 C 5,6 C 75 % 1029,5 hPa 0,0 l/m 0 min 0 min 54 W/m 12,9 km/h (3 Bft) 95,74 %
24.12.2018 14:06 7,9 C 10,6 C 5,6 C 75 % 1029,6 hPa 0,0 l/m 0 min 0 min 74 W/m 6,4 km/h (2 Bft) 95,74 %
24.12.2018 14:08 7,8 C 9,4 C 5,0 C 75 % 1029,5 hPa 0,0 l/m 0 min 0 min 77 W/m 6,4 km/h (2 Bft) 95,24 %
24.12.2018 14:10 7,8 C 8,9 C 5,0 C 76 % 1029,5 hPa 0,0 l/m 0 min 0 min 81 W/m 12,9 km/h (3 Bft) 95,92 %
24.12.2018 14:12 7,7 C 8,9 C 5,0 C 75 % 1029,4 hPa 0,0 l/m 0 min 0 min 113 W/m 6,4 km/h (2 Bft) 93,62 %
24.12.2018 14:14 7,7 C 10,6 C 5,0 C 76 % 1029,4 hPa 0,0 l/m 2 min 0 min 141 W/m 6,4 km/h (2 Bft) 93,62 %
24.12.2018 14:16 7,6 C 12,8 C 5,0 C 76 % 1029,4 hPa 0,0 l/m 2 min 0 min 246 W/m 3,2 km/h (1 Bft) 95,74 %
24.12.2018 14:18 7,6 C 13,3 C 5,0 C 76 % 1029,4 hPa 0,0 l/m 2 min 0 min 237 W/m 12,9 km/h (3 Bft) 95,74 %
24.12.2018 14:20 7,6 C 13,9 C 5,0 C 76 % 1029,5 hPa 0,0 l/m 2 min 0 min 235 W/m 6,4 km/h (2 Bft) 97,87 %
24.12.2018 14:22 7,6 C 14,4 C 5,0 C 77 % 1029,5 hPa 0,0 l/m 2 min 0 min 234 W/m 9,7 km/h (2 Bft) 95,65 %
24.12.2018 14:24 7,6 C 14,4 C 5,0 C 77 % 1029,7 hPa 0,0 l/m 2 min 0 min 237 W/m 6,4 km/h (2 Bft) 93,62 %
24.12.2018 14:26 7,6 C 14,4 C 5,0 C 76 % 1029,7 hPa 0,0 l/m 2 min 0 min 245 W/m 12,9 km/h (3 Bft) 95,74 %
24.12.2018 14:28 7,6 C 14,4 C 5,0 C 76 % 1029,7 hPa 0,0 l/m 2 min 0 min 250 W/m 9,7 km/h (2 Bft) 97,87 %
24.12.2018 14:30 7,6 C 12,2 C 5,0 C 76 % 1029,6 hPa 0,0 l/m 2 min 0 min 218 W/m 12,9 km/h (3 Bft) 95,24 %
24.12.2018 14:32 7,5 C 10,6 C 5,0 C 76 % 1029,6 hPa 0,0 l/m 0 min 0 min 84 W/m 12,9 km/h (3 Bft) 97,83 %
24.12.2018 14:34 7,5 C 9,4 C 5,0 C 77 % 1029,7 hPa 0,0 l/m 0 min 0 min 88 W/m 12,9 km/h (3 Bft) 95,74 %
24.12.2018 14:36 7,4 C 8,3 C 5,0 C 77 % 1029,7 hPa 0,0 l/m 0 min 0 min 81 W/m 12,9 km/h (3 Bft) 97,87 %
24.12.2018 14:38 7,4 C 7,8 C 5,0 C 77 % 1029,7 hPa 0,0 l/m 0 min 0 min 70 W/m 9,7 km/h (2 Bft) 97,96 %
24.12.2018 14:40 7,4 C 7,2 C 5,0 C 77 % 1029,8 hPa 0,0 l/m 0 min 0 min 62 W/m 6,4 km/h (2 Bft) 97,87 %
24.12.2018 14:42 7,3 C 6,7 C 5,0 C 78 % 1029,7 hPa 0,0 l/m 0 min 0 min 58 W/m 16,1 km/h (3 Bft) 95,65 %
24.12.2018 14:44 7,3 C 6,7 C 5,0 C 78 % 1029,8 hPa 0,0 l/m 0 min 0 min 59 W/m 12,9 km/h (3 Bft) 97,87 %
24.12.2018 14:46 7,2 C 6,7 C 5,0 C 78 % 1029,8 hPa 0,0 l/m 0 min 0 min 57 W/m 12,9 km/h (3 Bft) 95,92 %
24.12.2018 14:48 7,2 C 6,1 C 4,4 C 78 % 1029,9 hPa 0,0 l/m 0 min 0 min 52 W/m 9,7 km/h (2 Bft) 97,87 %
24.12.2018 14:50 7,1 C 6,1 C 4,4 C 78 % 1030,0 hPa 0,0 l/m 0 min 0 min 47 W/m 12,9 km/h (3 Bft) 100,00 %
24.12.2018 14:52 7,0 C 6,1 C 4,4 C 78 % 1030,0 hPa 0,0 l/m 0 min 0 min 41 W/m 16,1 km/h (3 Bft) 100,00 %
24.12.2018 14:54 6,9 C 6,1 C 4,4 C 78 % 1030,0 hPa 0,0 l/m 0 min 0 min 42 W/m 9,7 km/h (2 Bft) 100,00 %
24.12.2018 14:56 6,9 C 6,1 C 4,4 C 78 % 1030,0 hPa 0,0 l/m 0 min 0 min 48 W/m 16,1 km/h (3 Bft) 100,00 %
24.12.2018 14:58 6,8 C 6,1 C 4,4 C 78 % 1030,1 hPa 0,0 l/m 0 min 0 min 57 W/m 9,7 km/h (2 Bft) 100,00 %
24.12.2018 15:00 6,8 C 6,1 C 4,4 C 78 % 1030,1 hPa 0,0 l/m 0 min 0 min 62 W/m 12,9 km/h (3 Bft) 100,00 %
24.12.2018 15:02 6,7 C 6,1 C 4,4 C 78 % 1030,1 hPa 0,0 l/m 0 min 0 min 60 W/m 9,7 km/h (2 Bft) 97,87 %
24.12.2018 15:04 6,7 C 6,1 C 4,4 C 78 % 1030,2 hPa 0,0 l/m 0 min 0 min 61 W/m 12,9 km/h (3 Bft) 97,87 %
24.12.2018 15:06 6,6 C 6,1 C 4,4 C 78 % 1030,1 hPa 0,0 l/m 0 min 0 min 70 W/m 6,4 km/h (2 Bft) 100,00 %
24.12.2018 15:08 6,6 C 6,1 C 4,4 C 79 % 1030,2 hPa 0,0 l/m 0 min 0 min 67 W/m 16,1 km/h (3 Bft) 97,87 %
24.12.2018 15:10 6,6 C 6,1 C 4,4 C 79 % 1030,2 hPa 0,0 l/m 0 min 0 min 62 W/m 12,9 km/h (3 Bft) 100,00 %
24.12.2018 15:12 6,5 C 6,1 C 4,4 C 79 % 1030,2 hPa 0,0 l/m 0 min 0 min 66 W/m 9,7 km/h (2 Bft) 100,00 %
24.12.2018 15:14 6,5 C 6,1 C 4,4 C 79 % 1030,2 hPa 0,0 l/m 0 min 0 min 71 W/m 9,7 km/h (2 Bft) 100,00 %
24.12.2018 15:16 6,4 C 6,1 C 4,4 C 79 % 1030,1 hPa 0,0 l/m 2 min 0 min 72 W/m 12,9 km/h (3 Bft) 97,96 %
24.12.2018 15:18 6,4 C 6,1 C 5,0 C 79 % 1030,1 hPa 0,0 l/m 0 min 0 min 65 W/m 12,9 km/h (3 Bft) 97,83 %
24.12.2018 15:20 6,4 C 6,1 C 5,0 C 79 % 1030,3 hPa 0,0 l/m 0 min 0 min 55 W/m 12,9 km/h (3 Bft) 97,87 %
24.12.2018 15:22 6,4 C 6,1 C 5,0 C 79 % 1030,2 hPa 0,0 l/m 0 min 0 min 38 W/m 12,9 km/h (3 Bft) 97,87 %
24.12.2018 15:24 6,4 C 6,1 C 4,4 C 79 % 1030,3 hPa 0,0 l/m 0 min 0 min 31 W/m 6,4 km/h (2 Bft) 97,87 %
24.12.2018 15:26 6,4 C 5,6 C 4,4 C 79 % 1030,3 hPa 0,0 l/m 0 min 0 min 31 W/m 6,4 km/h (2 Bft) 93,62 %
24.12.2018 15:28 6,4 C 5,6 C 4,4 C 80 % 1030,5 hPa 0,0 l/m 0 min 0 min 29 W/m 9,7 km/h (2 Bft) 97,83 %
24.12.2018 15:30 6,3 C 5,6 C 4,4 C 80 % 1030,5 hPa 0,0 l/m 0 min 0 min 25 W/m 6,4 km/h (2 Bft) 93,62 %
24.12.2018 15:32 6,3 C 5,6 C 4,4 C 80 % 1030,5 hPa 0,0 l/m 0 min 0 min 27 W/m 9,7 km/h (2 Bft) 97,87 %
24.12.2018 15:34 6,2 C 5,0 C 3,9 C 80 % 1030,5 hPa 0,0 l/m 0 min 0 min 29 W/m 6,4 km/h (2 Bft) 95,92 %
24.12.2018 15:36 6,2 C 5,0 C 3,9 C 80 % 1030,6 hPa 0,0 l/m 0 min 0 min 27 W/m 9,7 km/h (2 Bft) 95,83 %
24.12.2018 15:38 6,2 C 5,0 C 3,9 C 80 % 1030,6 hPa 0,0 l/m 0 min 0 min 27 W/m 12,9 km/h (3 Bft) 95,74 %
24.12.2018 15:40 6,1 C 5,0 C 3,9 C 80 % 1030,7 hPa 0,0 l/m 0 min 0 min 26 W/m 6,4 km/h (2 Bft) 97,87 %
24.12.2018 15:42 6,1 C 5,0 C 3,9 C 80 % 1030,7 hPa 0,0 l/m 0 min 0 min 25 W/m 6,4 km/h (2 Bft) 97,83 %
24.12.2018 15:44 6,1 C 5,0 C 3,9 C 80 % 1030,7 hPa 0,0 l/m 0 min 0 min 23 W/m 9,7 km/h (2 Bft) 95,74 %
24.12.2018 15:46 6,0 C 5,0 C 3,3 C 80 % 1030,8 hPa 0,0 l/m 0 min 0 min 26 W/m 9,7 km/h (2 Bft) 95,74 %
24.12.2018 15:48 5,9 C 5,0 C 3,3 C 80 % 1030,8 hPa 0,0 l/m 0 min 0 min 30 W/m 6,4 km/h (2 Bft) 97,87 %
24.12.2018 15:50 5,9 C 4,4 C 3,3 C 80 % 1031,0 hPa 0,0 l/m 0 min 0 min 32 W/m 3,2 km/h (1 Bft) 97,62 %
24.12.2018 15:52 5,9 C 4,4 C 3,3 C 80 % 1031,1 hPa 0,0 l/m 0 min 0 min 30 W/m 3,2 km/h (1 Bft) 95,92 %
24.12.2018 15:54 5,9 C 4,4 C 3,3 C 80 % 1031,0 hPa 0,0 l/m 0 min 0 min 26 W/m 6,4 km/h (2 Bft) 97,96 %
24.12.2018 15:56 5,8 C 4,4 C 3,3 C 80 % 1031,0 hPa 0,0 l/m 0 min 0 min 25 W/m 6,4 km/h (2 Bft) 95,74 %
24.12.2018 15:58 5,8 C 4,4 C 3,3 C 80 % 1031,1 hPa 0,0 l/m 0 min 0 min 23 W/m 6,4 km/h (2 Bft) 97,87 %
24.12.2018 16:00 5,8 C 4,4 C 3,3 C 81 % 1031,2 hPa 0,0 l/m 0 min 0 min 21 W/m 3,2 km/h (1 Bft) 95,83 %
24.12.2018 16:02 5,7 C 3,9 C 3,3 C 81 % 1031,2 hPa 0,0 l/m 0 min 0 min 19 W/m 6,4 km/h (2 Bft) 97,87 %
24.12.2018 16:04 5,7 C 3,9 C 3,3 C 81 % 1031,2 hPa 0,0 l/m 0 min 0 min 18 W/m 3,2 km/h (1 Bft) 97,87 %
24.12.2018 16:06 5,6 C 3,9 C 2,8 C 81 % 1031,2 hPa 0,0 l/m 0 min 0 min 16 W/m 3,2 km/h (1 Bft) 95,65 %
24.12.2018 16:08 5,6 C 3,9 C 2,8 C 81 % 1031,2 hPa 0,0 l/m 0 min 0 min 15 W/m 3,2 km/h (1 Bft) 97,87 %
24.12.2018 16:10 5,5 C 3,9 C 2,8 C 81 % 1031,2 hPa 0,0 l/m 0 min 0 min 13 W/m 0,0 km/h (0 Bft) 97,87 %
24.12.2018 16:12 5,5 C 3,9 C 2,8 C 81 % 1031,2 hPa 0,0 l/m 0 min 0 min 11 W/m 0,0 km/h (0 Bft) 95,24 %
24.12.2018 16:14 5,4 C 3,9 C 2,8 C 81 % 1031,2 hPa 0,0 l/m 0 min 0 min 9 W/m 0,0 km/h (0 Bft) 95,92 %
24.12.2018 16:16 5,4 C 3,9 C 2,8 C 81 % 1031,2 hPa 0,0 l/m 0 min 0 min 9 W/m 0,0 km/h (0 Bft) 97,92 %
24.12.2018 16:18 5,3 C 3,3 C 2,8 C 81 % 1031,3 hPa 0,0 l/m 0 min 0 min 7 W/m 0,0 km/h (0 Bft) 97,87 %
24.12.2018 16:20 5,3 C 3,3 C 2,2 C 81 % 1031,3 hPa 0,0 l/m 0 min 0 min 7 W/m 0,0 km/h (0 Bft) 95,74 %
24.12.2018 16:22 5,3 C 2,8 C 2,2 C 81 % 1031,3 hPa 0,0 l/m 0 min 0 min 7 W/m 0,0 km/h (0 Bft) 97,87 %
24.12.2018 16:24 5,2 C 2,8 C 2,2 C 81 % 1031,3 hPa 0,0 l/m 0 min 0 min 5 W/m 0,0 km/h (0 Bft) 95,83 %
24.12.2018 16:26 5,1 C 2,8 C 2,2 C 82 % 1031,4 hPa 0,0 l/m 0 min 0 min 5 W/m 0,0 km/h (0 Bft) 97,87 %
24.12.2018 16:28 5,1 C 2,8 C 2,2 C 82 % 1031,3 hPa 0,0 l/m 0 min 0 min 5 W/m 0,0 km/h (0 Bft) 97,87 %
24.12.2018 16:30 5,0 C 2,8 C 2,2 C 82 % 1031,4 hPa 0,0 l/m 0 min 0 min 5 W/m 0,0 km/h (0 Bft) 97,83 %
24.12.2018 16:32 4,9 C 2,8 C 2,2 C 82 % 1031,4 hPa 0,0 l/m 0 min 0 min 0 W/m 0,0 km/h (0 Bft) 95,74 %
24.12.2018 16:34 4,9 C 2,2 C 1,7 C 82 % 1031,4 hPa 0,0 l/m 0 min 0 min 0 W/m 0,0 km/h (0 Bft) 95,74 %
24.12.2018 16:36 4,8 C 2,2 C 1,7 C 82 % 1031,4 hPa 0,0 l/m 0 min 0 min 0 W/m 0,0 km/h (0 Bft) 95,74 %
24.12.2018 16:38 4,8 C 2,2 C 1,7 C 82 % 1031,4 hPa 0,0 l/m 0 min 0 min 0 W/m 0,0 km/h (0 Bft) 95,74 %
24.12.2018 16:40 4,7 C 2,2 C 1,7 C 82 % 1031,3 hPa 0,0 l/m 0 min 0 min 0 W/m 0,0 km/h (0 Bft) 97,83 %
24.12.2018 16:42 4,6 C 2,8 C 1,7 C 82 % 1031,2 hPa 0,0 l/m 0 min 0 min 0 W/m 0,0 km/h (0 Bft) 97,87 %
24.12.2018 16:44 4,6 C 2,8 C 1,7 C 82 % 1031,1 hPa 0,0 l/m 0 min 0 min 0 W/m 0,0 km/h (0 Bft) 97,87 %
24.12.2018 16:46 4,5 C 2,8 C 1,7 C 83 % 1031,2 hPa 0,0 l/m 0 min 0 min 0 W/m 0,0 km/h (0 Bft) 97,62 %
24.12.2018 16:48 4,4 C 2,2 C 1,7 C 83 % 1031,2 hPa 0,0 l/m 0 min 0 min 0 W/m 0,0 km/h (0 Bft) 95,92 %
24.12.2018 16:50 4,4 C 2,2 C 1,7 C 83 % 1031,2 hPa 0,0 l/m 0 min 0 min 0 W/m 0,0 km/h (0 Bft) 95,83 %
24.12.2018 16:52 4,3 C 2,2 C 1,7 C 83 % 1031,2 hPa 0,0 l/m 0 min 0 min 0 W/m 0,0 km/h (0 Bft) 97,87 %
24.12.2018 16:54 4,2 C 1,7 C 1,1 C 83 % 1031,3 hPa 0,0 l/m 0 min 0 min 0 W/m 0,0 km/h (0 Bft) 97,87 %
24.12.2018 16:56 4,2 C 1,7 C 1,1 C 83 % 1031,3 hPa 0,0 l/m 0 min 0 min 0 W/m 0,0 km/h (0 Bft) 100,00 %
24.12.2018 16:58 4,1 C 1,7 C 1,1 C 83 % 1031,3 hPa 0,0 l/m 0 min 0 min 0 W/m 0,0 km/h (0 Bft) 97,87 %
24.12.2018 17:00 4,1 C 1,1 C 1,1 C 83 % 1031,3 hPa 0,0 l/m 0 min 0 min 0 W/m 0,0 km/h (0 Bft) 97,92 %
24.12.2018 17:02 4,0 C 1,1 C 1,1 C 84 % 1031,4 hPa 0,0 l/m 0 min 0 min 0 W/m 0,0 km/h (0 Bft) 97,96 %
24.12.2018 17:04 3,9 C 1,7 C 1,1 C 84 % 1031,4 hPa 0,0 l/m 0 min 0 min 0 W/m 0,0 km/h (0 Bft) 97,83 %
24.12.2018 17:06 3,8 C 1,7 C 1,1 C 84 % 1031,4 hPa 0,0 l/m 0 min 0 min 0 W/m 3,2 km/h (1 Bft) 98,08 %
24.12.2018 17:08 3,8 C 2,2 C 1,1 C 84 % 1031,4 hPa 0,0 l/m 0 min 0 min 0 W/m 0,0 km/h (0 Bft) 97,14 %
24.12.2018 17:10 3,8 C 2,2 C 1,1 C 84 % 1031,4 hPa 0,0 l/m 0 min 0 min 0 W/m 0,0 km/h (0 Bft) 97,87 %
24.12.2018 17:12 3,7 C 2,2 C 1,1 C 84 % 1031,5 hPa 0,0 l/m 0 min 0 min 0 W/m 0,0 km/h (0 Bft) 95,83 %
24.12.2018 17:14 3,7 C 2,2 C 1,1 C 84 % 1031,4 hPa 0,0 l/m 0 min 0 min 0 W/m 0,0 km/h (0 Bft) 97,87 %
24.12.2018 17:16 3,6 C 2,2 C 1,1 C 84 % 1031,3 hPa 0,0 l/m 0 min 0 min 0 W/m 0,0 km/h (0 Bft) 95,74 %
24.12.2018 17:18 3,6 C 2,2 C 1,1 C 85 % 1031,3 hPa 0,0 l/m 0 min 0 min 0 W/m 0,0 km/h (0 Bft) 95,65 %
24.12.2018 17:20 3,5 C 2,2 C 1,1 C 85 % 1031,3 hPa 0,0 l/m 0 min 0 min 0 W/m 0,0 km/h (0 Bft) 95,74 %
24.12.2018 17:22 3,5 C 1,7 C 1,1 C 85 % 1031,4 hPa 0,0 l/m 0 min 0 min 0 W/m 0,0 km/h (0 Bft) 97,87 %
24.12.2018 17:24 3,4 C 1,7 C 1,1 C 85 % 1031,3 hPa 0,0 l/m 0 min 0 min 0 W/m 0,0 km/h (0 Bft) 97,87 %
24.12.2018 17:26 3,4 C 1,1 C 1,1 C 85 % 1031,4 hPa 0,0 l/m 0 min 0 min 0 W/m 0,0 km/h (0 Bft) 97,87 %
24.12.2018 17:28 3,3 C 1,1 C 1,1 C 85 % 1031,4 hPa 0,0 l/m 0 min 0 min 0 W/m 0,0 km/h (0 Bft) 97,87 %
24.12.2018 17:30 3,3 C 1,1 C 1,1 C 85 % 1031,5 hPa 0,0 l/m 0 min 0 min 0 W/m 0,0 km/h (0 Bft) 97,83 %
24.12.2018 17:32 3,2 C 1,1 C 1,1 C 85 % 1031,5 hPa 0,0 l/m 0 min 0 min 0 W/m 0,0 km/h (0 Bft) 97,87 %
24.12.2018 17:34 3,2 C 1,1 C 1,1 C 86 % 1031,7 hPa 0,0 l/m 0 min 0 min 0 W/m 0,0 km/h (0 Bft) 93,62 %
24.12.2018 17:36 3,1 C 1,1 C 0,6 C 86 % 1031,7 hPa 0,0 l/m 0 min 0 min 0 W/m 0,0 km/h (0 Bft) 98,28 %
24.12.2018 17:38 3,1 C 1,1 C 0,6 C 86 % 1031,7 hPa 0,0 l/m 0 min 0 min 0 W/m 0,0 km/h (0 Bft) 97,22 %
24.12.2018 17:40 3,1 C 1,1 C 0,6 C 86 % 1031,7 hPa 0,0 l/m 0 min 0 min 0 W/m 0,0 km/h (0 Bft) 97,83 %
24.12.2018 17:42 3,0 C 1,1 C 0,6 C 86 % 1031,8 hPa 0,0 l/m 0 min 0 min 0 W/m 0,0 km/h (0 Bft) 97,87 %
24.12.2018 17:44 2,9 C 1,1 C 0,6 C 86 % 1031,8 hPa 0,0 l/m 0 min 0 min 0 W/m 0,0 km/h (0 Bft) 95,35 %
24.12.2018 17:46 2,9 C 1,1 C 0,6 C 86 % 1031,7 hPa 0,0 l/m 0 min 0 min 0 W/m 0,0 km/h (0 Bft) 95,74 %
24.12.2018 17:48 2,9 C 1,1 C 0,6 C 86 % 1031,6 hPa 0,0 l/m 0 min 0 min 0 W/m 0,0 km/h (0 Bft) 95,74 %
24.12.2018 17:50 2,8 C 1,1 C 0,6 C 86 % 1031,7 hPa 0,0 l/m 0 min 0 min 0 W/m 0,0 km/h (0 Bft) 95,65 %
24.12.2018 17:52 2,8 C 1,1 C 0,6 C 86 % 1031,6 hPa 0,0 l/m 0 min 0 min 0 W/m 0,0 km/h (0 Bft) 93,62 %
24.12.2018 17:54 2,7 C 1,1 C 0,6 C 86 % 1031,6 hPa 0,0 l/m 0 min 0 min 0 W/m 0,0 km/h (0 Bft) 95,74 %
24.12.2018 17:56 2,7 C 1,1 C 0,6 C 86 % 1031,6 hPa 0,0 l/m 0 min 0 min 0 W/m 0,0 km/h (0 Bft) 93,62 %
24.12.2018 17:58 2,7 C 0,6 C 0,6 C 86 % 1031,7 hPa 0,0 l/m 0 min 0 min 0 W/m 0,0 km/h (0 Bft) 95,74 %
24.12.2018 18:00 2,6 C 0,6 C 0,0 C 86 % 1031,8 hPa 0,0 l/m 0 min 0 min 0 W/m 0,0 km/h (0 Bft) 97,87 %
24.12.2018 18:02 2,6 C 0,0 C 0,0 C 87 % 1031,9 hPa 0,0 l/m 0 min 0 min 0 W/m 0,0 km/h (0 Bft) 97,96 %
24.12.2018 18:04 2,5 C 0,0 C 0,0 C 87 % 1031,9 hPa 0,0 l/m 0 min 0 min 0 W/m 0,0 km/h (0 Bft) 97,87 %
24.12.2018 18:08 2,4 C 0,0 C 0,0 C 87 % 1032,0 hPa 0,0 l/m 0 min 0 min 0 W/m 0,0 km/h (0 Bft) 96,81 %
24.12.2018 18:10 2,4 C 0,0 C 0,0 C 87 % 1031,9 hPa 0,0 l/m 0 min 0 min 0 W/m 0,0 km/h (0 Bft) 97,87 %
24.12.2018 18:12 2,3 C 0,0 C 0,0 C 87 % 1031,9 hPa 0,0 l/m 0 min 0 min 0 W/m 0,0 km/h (0 Bft) 95,83 %
24.12.2018 18:14 2,3 C 0,0 C 0,0 C 87 % 1031,9 hPa 0,0 l/m 0 min 0 min 0 W/m 0,0 km/h (0 Bft) 97,87 %
24.12.2018 18:16 2,3 C 0,0 C 0,0 C 87 % 1031,9 hPa 0,0 l/m 0 min 0 min 0 W/m 0,0 km/h (0 Bft) 95,65 %
24.12.2018 18:18 2,2 C 0,6 C 0,0 C 87 % 1031,8 hPa 0,0 l/m 0 min 0 min 0 W/m 0,0 km/h (0 Bft) 100,00 %
24.12.2018 18:20 2,2 C 0,6 C 0,0 C 87 % 1031,9 hPa 0,0 l/m 0 min 0 min 0 W/m 0,0 km/h (0 Bft) 97,87 %
24.12.2018 18:22 2,1 C 0,6 C 0,0 C 87 % 1031,9 hPa 0,0 l/m 0 min 0 min 0 W/m 0,0 km/h (0 Bft) 97,62 %
24.12.2018 18:24 2,1 C 0,0 C 0,0 C 87 % 1031,9 hPa 0,0 l/m 0 min 0 min 0 W/m 0,0 km/h (0 Bft) 100,00 %
24.12.2018 18:26 2,1 C 0,0 C 0,0 C 87 % 1032,1 hPa 0,0 l/m 0 min 0 min 0 W/m 0,0 km/h (0 Bft) 95,74 %
24.12.2018 18:28 2,0 C 0,0 C 0,0 C 87 % 1032,1 hPa 0,0 l/m 0 min 0 min 0 W/m 0,0 km/h (0 Bft) 100,00 %
24.12.2018 18:30 1,9 C 0,0 C 0,0 C 87 % 1032,0 hPa 0,0 l/m 0 min 0 min 0 W/m 0,0 km/h (0 Bft) 100,00 %
24.12.2018 18:32 1,9 C 0,0 C 0,0 C 87 % 1032,0 hPa 0,0 l/m 0 min 0 min 0 W/m 0,0 km/h (0 Bft) 100,00 %
24.12.2018 18:34 1,8 C 0,0 C 0,0 C 87 % 1032,0 hPa 0,0 l/m 0 min 0 min 0 W/m 0,0 km/h (0 Bft) 100,00 %
24.12.2018 18:36 1,8 C 0,0 C -0,6 C 87 % 1032,2 hPa 0,0 l/m 0 min 0 min 0 W/m 0,0 km/h (0 Bft) 100,00 %
24.12.2018 18:38 1,8 C 0,0 C -0,6 C 88 % 1032,3 hPa 0,0 l/m 0 min 0 min 0 W/m 0,0 km/h (0 Bft) 100,00 %
24.12.2018 18:40 1,7 C -0,6 C -0,6 C 88 % 1032,3 hPa 0,0 l/m 0 min 0 min 0 W/m 0,0 km/h (0 Bft) 97,92 %
24.12.2018 18:42 1,7 C -0,6 C -0,6 C 88 % 1032,4 hPa 0,0 l/m 0 min 0 min 0 W/m 0,0 km/h (0 Bft) 97,87 %
24.12.2018 18:44 1,7 C 0,0 C -0,6 C 88 % 1032,4 hPa 0,0 l/m 0 min 0 min 0 W/m 0,0 km/h (0 Bft) 95,74 %
24.12.2018 18:46 1,6 C 0,0 C -0,6 C 88 % 1032,4 hPa 0,0 l/m 0 min 0 min 0 W/m 0,0 km/h (0 Bft) 97,87 %
24.12.2018 18:48 1,6 C 0,0 C -0,6 C 88 % 1032,4 hPa 0,0 l/m 0 min 0 min 0 W/m 0,0 km/h (0 Bft) 97,87 %
24.12.2018 18:50 1,5 C 0,0 C -0,6 C 88 % 1032,4 hPa 0,0 l/m 0 min 0 min 0 W/m 0,0 km/h (0 Bft) 95,65 %
24.12.2018 18:52 1,5 C -0,6 C -0,6 C 88 % 1032,3 hPa 0,0 l/m 0 min 0 min 0 W/m 0,0 km/h (0 Bft) 95,74 %
24.12.2018 18:54 1,4 C -0,6 C -0,6 C 88 % 1032,3 hPa 0,0 l/m 0 min 0 min 0 W/m 0,0 km/h (0 Bft) 97,87 %
24.12.2018 18:56 1,4 C -0,6 C -0,6 C 88 % 1032,2 hPa 0,0 l/m 0 min 0 min 0 W/m 0,0 km/h (0 Bft) 97,87 %
24.12.2018 18:58 1,4 C 0,0 C -0,6 C 88 % 1032,3 hPa 0,0 l/m 0 min 0 min 0 W/m 0,0 km/h (0 Bft) 97,87 %
24.12.2018 19:00 1,3 C 0,0 C -0,6 C 88 % 1032,3 hPa 0,0 l/m 0 min 0 min 0 W/m 0,0 km/h (0 Bft) 97,87 %
24.12.2018 19:02 1,3 C -0,6 C -0,6 C 88 % 1032,4 hPa 0,0 l/m 0 min 0 min 0 W/m 0,0 km/h (0 Bft) 95,74 %
24.12.2018 19:04 1,3 C 0,0 C -0,6 C 88 % 1032,3 hPa 0,0 l/m 0 min 0 min 0 W/m 0,0 km/h (0 Bft) 97,87 %
24.12.2018 19:06 1,2 C 0,0 C -0,6 C 88 % 1032,3 hPa 0,0 l/m 0 min 0 min 0 W/m 3,2 km/h (1 Bft) 97,67 %
24.12.2018 19:08 1,2 C 0,0 C -0,6 C 88 % 1032,4 hPa 0,0 l/m 0 min 0 min 0 W/m 0,0 km/h (0 Bft) 97,96 %
24.12.2018 19:10 1,2 C 0,0 C -0,6 C 88 % 1032,4 hPa 0,0 l/m 0 min 0 min 0 W/m 0,0 km/h (0 Bft) 97,83 %
24.12.2018 19:12 1,1 C 0,0 C -0,6 C 88 % 1032,5 hPa 0,0 l/m 0 min 0 min 0 W/m 0,0 km/h (0 Bft) 96,00 %
24.12.2018 19:14 1,1 C -0,6 C -0,6 C 88 % 1032,5 hPa 0,0 l/m 0 min 0 min 0 W/m 0,0 km/h (0 Bft) 97,83 %
24.12.2018 19:16 1,1 C -0,6 C -0,6 C 88 % 1032,5 hPa 0,0 l/m 0 min 0 min 0 W/m 0,0 km/h (0 Bft) 95,74 %
24.12.2018 19:18 1,1 C -0,6 C -0,6 C 88 % 1032,5 hPa 0,0 l/m 0 min 0 min 0 W/m 0,0 km/h (0 Bft) 93,62 %
24.12.2018 19:20 1,0 C -0,6 C -0,6 C 88 % 1032,4 hPa 0,0 l/m 0 min 0 min 0 W/m 0,0 km/h (0 Bft) 97,87 %
24.12.2018 19:22 0,9 C -0,6 C -0,6 C 88 % 1032,5 hPa 0,0 l/m 0 min 0 min 0 W/m 0,0 km/h (0 Bft) 97,87 %
24.12.2018 19:24 0,9 C -0,6 C -0,6 C 88 % 1032,6 hPa 0,0 l/m 0 min 0 min 0 W/m 0,0 km/h (0 Bft) 96,23 %
24.12.2018 19:26 0,9 C -0,6 C -0,6 C 88 % 1032,6 hPa 0,0 l/m 0 min 0 min 0 W/m 0,0 km/h (0 Bft) 95,74 %
24.12.2018 19:28 0,9 C -1,1 C -1,1 C 89 % 1032,6 hPa 0,0 l/m 0 min 0 min 0 W/m 0,0 km/h (0 Bft) 95,74 %
24.12.2018 19:30 0,9 C -1,1 C -1,1 C 89 % 1032,6 hPa 0,0 l/m 0 min 0 min 0 W/m 0,0 km/h (0 Bft) 94,74 %
24.12.2018 19:32 0,8 C -0,6 C -1,1 C 89 % 1032,7 hPa 0,0 l/m 0 min 0 min 0 W/m 0,0 km/h (0 Bft) 93,62 %
24.12.2018 19:34 0,8 C -0,6 C -1,1 C 89 % 1032,8 hPa 0,0 l/m 0 min 0 min 0 W/m 0,0 km/h (0 Bft) 95,74 %
24.12.2018 19:36 0,8 C -0,6 C -1,1 C 89 % 1032,8 hPa 0,0 l/m 0 min 0 min 0 W/m 0,0 km/h (0 Bft) 93,10 %
24.12.2018 19:38 0,7 C 0,0 C -1,1 C 89 % 1032,8 hPa 0,0 l/m 0 min 0 min 0 W/m 0,0 km/h (0 Bft) 94,29 %
24.12.2018 19:40 0,7 C 0,0 C -1,1 C 89 % 1032,9 hPa 0,0 l/m 0 min 0 min 0 W/m 0,0 km/h (0 Bft) 95,74 %
24.12.2018 19:42 0,7 C 0,0 C -1,1 C 89 % 1032,9 hPa 0,0 l/m 0 min 0 min 0 W/m 0,0 km/h (0 Bft) 97,87 %
24.12.2018 19:44 0,7 C 0,0 C -1,1 C 89 % 1032,8 hPa 0,0 l/m 0 min 0 min 0 W/m 0,0 km/h (0 Bft) 97,87 %
24.12.2018 19:46 0,7 C 0,0 C -1,1 C 89 % 1032,9 hPa 0,0 l/m 0 min 0 min 0 W/m 0,0 km/h (0 Bft) 97,62 %
24.12.2018 19:48 0,7 C 0,0 C -1,1 C 89 % 1032,9 hPa 0,0 l/m 0 min 0 min 0 W/m 0,0 km/h (0 Bft) 97,87 %
24.12.2018 19:50 0,6 C 0,0 C -1,1 C 89 % 1032,9 hPa 0,0 l/m 0 min 0 min 0 W/m 0,0 km/h (0 Bft) 95,74 %
24.12.2018 19:52 0,6 C -0,6 C -1,1 C 89 % 1033,0 hPa 0,0 l/m 0 min 0 min 0 W/m 0,0 km/h (0 Bft) 97,87 %
24.12.2018 19:54 0,6 C -0,6 C -1,1 C 90 % 1033,1 hPa 0,0 l/m 0 min 0 min 0 W/m 0,0 km/h (0 Bft) 97,87 %
24.12.2018 19:56 0,6 C -0,6 C -1,1 C 89 % 1033,2 hPa 0,0 l/m 0 min 0 min 0 W/m 0,0 km/h (0 Bft) 97,87 %
24.12.2018 19:58 0,6 C -0,6 C -1,1 C 90 % 1033,2 hPa 0,0 l/m 0 min 0 min 0 W/m 0,0 km/h (0 Bft) 97,83 %
24.12.2018 20:00 0,5 C -0,6 C -1,1 C 90 % 1033,1 hPa 0,0 l/m 0 min 0 min 0 W/m 0,0 km/h (0 Bft) 100,00 %
24.12.2018 20:02 0,5 C -0,6 C -1,1 C 90 % 1033,1 hPa 0,0 l/m 0 min 0 min 0 W/m 0,0 km/h (0 Bft) 100,00 %
24.12.2018 20:04 0,5 C -0,6 C -1,1 C 90 % 1033,2 hPa 0,0 l/m 0 min 0 min 0 W/m 0,0 km/h (0 Bft) 100,00 %
24.12.2018 20:06 0,5 C -0,6 C -1,1 C 90 % 1033,2 hPa 0,0 l/m 0 min 0 min 0 W/m 0,0 km/h (0 Bft) 98,31 %
24.12.2018 20:08 0,5 C -0,6 C -1,1 C 90 % 1033,3 hPa 0,0 l/m 0 min 0 min 0 W/m 0,0 km/h (0 Bft) 100,00 %
24.12.2018 20:10 0,5 C 0,0 C -1,1 C 90 % 1033,2 hPa 0,0 l/m 0 min 0 min 0 W/m 0,0 km/h (0 Bft) 100,00 %
24.12.2018 20:12 0,5 C 0,0 C -1,1 C 90 % 1033,2 hPa 0,0 l/m 0 min 0 min 0 W/m 0,0 km/h (0 Bft) 97,87 %
24.12.2018 20:14 0,5 C 0,0 C -1,1 C 90 % 1033,3 hPa 0,0 l/m 0 min 0 min 0 W/m 0,0 km/h (0 Bft) 100,00 %
24.12.2018 20:16 0,5 C -0,6 C -1,1 C 90 % 1033,3 hPa 0,0 l/m 0 min 0 min 0 W/m 0,0 km/h (0 Bft) 97,87 %
24.12.2018 20:18 0,5 C -0,6 C -1,1 C 90 % 1033,4 hPa 0,0 l/m 0 min 0 min 0 W/m 0,0 km/h (0 Bft) 100,00 %
24.12.2018 20:20 0,5 C -1,1 C -1,1 C 90 % 1033,4 hPa 0,0 l/m 0 min 0 min 0 W/m 0,0 km/h (0 Bft) 100,00 %
24.12.2018 20:22 0,5 C -1,1 C -1,1 C 90 % 1033,4 hPa 0,0 l/m 0 min 0 min 0 W/m 0,0 km/h (0 Bft) 100,00 %
24.12.2018 20:24 0,4 C -1,1 C -1,7 C 90 % 1033,4 hPa 0,0 l/m 0 min 0 min 0 W/m 0,0 km/h (0 Bft) 100,00 %
24.12.2018 20:26 0,4 C -1,1 C -1,7 C 90 % 1033,4 hPa 0,0 l/m 0 min 0 min 0 W/m 0,0 km/h (0 Bft) 100,00 %
24.12.2018 20:28 0,4 C -1,7 C -1,7 C 90 % 1033,4 hPa 0,0 l/m 0 min 0 min 0 W/m 0,0 km/h (0 Bft) 100,00 %
24.12.2018 20:30 0,4 C -1,1 C -1,7 C 90 % 1033,4 hPa 0,0 l/m 0 min 0 min 0 W/m 0,0 km/h (0 Bft) 97,87 %
24.12.2018 20:32 0,4 C -1,1 C -1,7 C 90 % 1033,3 hPa 0,0 l/m 0 min 0 min 0 W/m 0,0 km/h (0 Bft) 100,00 %
24.12.2018 20:34 0,3 C -1,1 C -1,7 C 90 % 1033,4 hPa 0,0 l/m 0 min 0 min 0 W/m 0,0 km/h (0 Bft) 100,00 %
24.12.2018 20:36 0,3 C -1,7 C -1,7 C 90 % 1033,4 hPa 0,0 l/m 0 min 0 min 0 W/m 0,0 km/h (0 Bft) 100,00 %
24.12.2018 20:38 0,3 C -1,1 C -1,7 C 90 % 1033,5 hPa 0,0 l/m 0 min 0 min 0 W/m 0,0 km/h (0 Bft) 100,00 %
24.12.2018 20:40 0,3 C -1,1 C -1,7 C 90 % 1033,5 hPa 0,0 l/m 0 min 0 min 0 W/m 0,0 km/h (0 Bft) 97,14 %
24.12.2018 20:42 0,2 C -0,6 C -1,7 C 91 % 1033,5 hPa 0,0 l/m 0 min 0 min 0 W/m 0,0 km/h (0 Bft) 100,00 %
24.12.2018 20:44 0,2 C -0,6 C -1,7 C 91 % 1033,5 hPa 0,0 l/m 0 min 0 min 0 W/m 0,0 km/h (0 Bft) 100,00 %
24.12.2018 20:46 0,2 C -0,6 C -1,7 C 91 % 1033,5 hPa 0,0 l/m 0 min 0 min 0 W/m 0,0 km/h (0 Bft) 100,00 %
24.12.2018 20:48 0,2 C -0,6 C -1,7 C 90 % 1033,4 hPa 0,0 l/m 0 min 0 min 0 W/m 0,0 km/h (0 Bft) 97,87 %
24.12.2018 20:50 0,1 C 0,0 C -1,7 C 91 % 1033,4 hPa 0,0 l/m 0 min 0 min 0 W/m 0,0 km/h (0 Bft) 100,00 %
24.12.2018 20:52 0,1 C 0,0 C -1,7 C 91 % 1033,4 hPa 0,0 l/m 0 min 0 min 0 W/m 0,0 km/h (0 Bft) 100,00 %
24.12.2018 20:54 0,1 C 0,0 C -1,7 C 91 % 1033,3 hPa 0,0 l/m 0 min 0 min 0 W/m 0,0 km/h (0 Bft) 97,87 %
24.12.2018 20:56 0,1 C 0,0 C -1,7 C 91 % 1033,4 hPa 0,0 l/m 0 min 0 min 0 W/m 0,0 km/h (0 Bft) 95,65 %
24.12.2018 20:58 0,1 C 0,0 C -1,7 C 91 % 1033,4 hPa 0,0 l/m 0 min 0 min 0 W/m 0,0 km/h (0 Bft) 97,87 %
24.12.2018 21:00 0,1 C 0,0 C -1,7 C 91 % 1033,3 hPa 0,0 l/m 0 min 0 min 0 W/m 0,0 km/h (0 Bft) 100,00 %
24.12.2018 21:02 0,1 C 0,0 C -1,7 C 91 % 1033,4 hPa 0,0 l/m 0 min 0 min 0 W/m 0,0 km/h (0 Bft) 97,87 %
24.12.2018 21:04 0,1 C 0,0 C -1,7 C 91 % 1033,5 hPa 0,0 l/m 0 min 0 min 0 W/m 0,0 km/h (0 Bft) 97,87 %
24.12.2018 21:06 0,1 C -0,6 C -1,7 C 91 % 1033,4 hPa 0,0 l/m 0 min 0 min 0 W/m 0,0 km/h (0 Bft) 94,83 %
24.12.2018 21:08 0,1 C -0,6 C -1,7 C 91 % 1033,4 hPa 0,0 l/m 0 min 0 min 0 W/m 0,0 km/h (0 Bft) 95,35 %
24.12.2018 21:10 0,1 C -1,1 C -1,7 C 92 % 1033,4 hPa 0,0 l/m 0 min 0 min 0 W/m 0,0 km/h (0 Bft) 96,00 %
24.12.2018 21:12 0,1 C -1,1 C -1,7 C 91 % 1033,5 hPa 0,0 l/m 0 min 0 min 0 W/m 0,0 km/h (0 Bft) 93,62 %
24.12.2018 21:14 0,1 C -1,1 C -1,7 C 91 % 1033,5 hPa 0,0 l/m 0 min 0 min 0 W/m 0,0 km/h (0 Bft) 95,74 %
24.12.2018 21:16 0,1 C -1,1 C -1,7 C 92 % 1033,4 hPa 0,0 l/m 0 min 0 min 0 W/m 0,0 km/h (0 Bft) 93,62 %
24.12.2018 21:18 0,1 C -1,1 C -1,7 C 92 % 1033,6 hPa 0,0 l/m 0 min 0 min 0 W/m 0,0 km/h (0 Bft) 93,62 %
24.12.2018 21:20 0,1 C -1,1 C -1,7 C 92 % 1033,6 hPa 0,0 l/m 0 min 0 min 0 W/m 0,0 km/h (0 Bft) 95,65 %
24.12.2018 21:22 0,1 C -1,1 C -1,7 C 92 % 1033,5 hPa 0,0 l/m 0 min 0 min 0 W/m 0,0 km/h (0 Bft) 95,74 %
24.12.2018 21:24 0,1 C -1,1 C -1,7 C 92 % 1033,5 hPa 0,0 l/m 0 min 0 min 0 W/m 0,0 km/h (0 Bft) 93,62 %
24.12.2018 21:26 0,0 C -1,1 C -1,7 C 92 % 1033,5 hPa 0,0 l/m 0 min 0 min 0 W/m 0,0 km/h (0 Bft) 95,74 %
24.12.2018 21:28 0,0 C -1,1 C -1,7 C 92 % 1033,5 hPa 0,0 l/m 0 min 0 min 0 W/m 0,0 km/h (0 Bft) 95,74 %
24.12.2018 21:30 0,0 C -1,1 C -1,7 C 92 % 1033,6 hPa 0,0 l/m 0 min 0 min 0 W/m 0,0 km/h (0 Bft) 95,74 %
24.12.2018 21:32 -0,1 C -1,1 C -1,7 C 92 % 1033,7 hPa 0,0 l/m 0 min 0 min 0 W/m 0,0 km/h (0 Bft) 93,48 %
24.12.2018 21:34 -0,1 C -1,1 C -1,7 C 92 % 1033,7 hPa 0,0 l/m 0 min 0 min 0 W/m 0,0 km/h (0 Bft) 95,74 %
24.12.2018 21:36 -0,1 C -1,1 C -1,7 C 92 % 1033,8 hPa 0,0 l/m 0 min 0 min 0 W/m 0,0 km/h (0 Bft) 95,74 %
24.12.2018 21:38 -0,1 C -1,1 C -1,7 C 92 % 1033,8 hPa 0,0 l/m 0 min 0 min 0 W/m 0,0 km/h (0 Bft) 97,87 %
24.12.2018 21:40 -0,1 C -1,1 C -1,7 C 92 % 1033,8 hPa 0,0 l/m 0 min 0 min 0 W/m 0,0 km/h (0 Bft) 97,87 %
24.12.2018 21:42 -0,1 C -1,1 C -1,7 C 92 % 1033,8 hPa 0,0 l/m 0 min 0 min 0 W/m 0,0 km/h (0 Bft) 93,48 %
24.12.2018 21:44 -0,1 C -1,1 C -1,7 C 92 % 1033,8 hPa 0,0 l/m 0 min 0 min 0 W/m 0,0 km/h (0 Bft) 93,62 %
24.12.2018 21:46 -0,2 C -1,1 C -1,7 C 92 % 1033,9 hPa 0,0 l/m 0 min 0 min 0 W/m 0,0 km/h (0 Bft) 93,62 %
24.12.2018 21:48 -0,2 C -1,1 C -1,7 C 92 % 1033,9 hPa 0,0 l/m 0 min 0 min 0 W/m 0,0 km/h (0 Bft) 95,74 %
24.12.2018 21:50 -0,2 C -1,1 C -1,1 C 92 % 1033,8 hPa 0,0 l/m 0 min 0 min 0 W/m 0,0 km/h (0 Bft) 95,74 %
24.12.2018 21:52 -0,2 C -0,6 C -1,1 C 92 % 1033,8 hPa 0,0 l/m 0 min 0 min 0 W/m 0,0 km/h (0 Bft) 91,49 %
24.12.2018 21:54 -0,2 C -0,6 C -1,1 C 92 % 1033,8 hPa 0,0 l/m 0 min 0 min 0 W/m 0,0 km/h (0 Bft) 95,74 %
24.12.2018 21:56 -0,2 C 0,0 C -1,1 C 92 % 1033,7 hPa 0,0 l/m 0 min 0 min 0 W/m 0,0 km/h (0 Bft) 95,65 %
24.12.2018 21:58 -0,2 C 0,0 C -1,1 C 93 % 1033,8 hPa 0,0 l/m 0 min 0 min 0 W/m 0,0 km/h (0 Bft) 95,74 %
24.12.2018 22:00 -0,2 C 0,0 C -1,1 C 93 % 1033,7 hPa 0,0 l/m 0 min 0 min 0 W/m 0,0 km/h (0 Bft) 95,74 %
24.12.2018 22:02 -0,2 C 0,0 C -1,1 C 93 % 1033,7 hPa 0,0 l/m 0 min 0 min 0 W/m 0,0 km/h (0 Bft) 95,74 %
24.12.2018 22:04 -0,1 C 0,0 C -0,6 C 93 % 1033,7 hPa 0,0 l/m 0 min 0 min 0 W/m 0,0 km/h (0 Bft) 97,87 %
24.12.2018 22:06 -0,1 C 0,6 C -0,6 C 93 % 1033,8 hPa 0,0 l/m 0 min 0 min 0 W/m 0,0 km/h (0 Bft) 97,87 %
24.12.2018 22:08 -0,1 C 0,6 C -0,6 C 93 % 1033,8 hPa 0,0 l/m 0 min 0 min 0 W/m 0,0 km/h (0 Bft) 97,87 %
24.12.2018 22:10 0,0 C 0,6 C -0,6 C 93 % 1033,8 hPa 0,0 l/m 0 min 0 min 0 W/m 0,0 km/h (0 Bft) 93,62 %
24.12.2018 22:12 0,0 C 0,6 C -0,6 C 93 % 1033,8 hPa 0,0 l/m 0 min 0 min 0 W/m 0,0 km/h (0 Bft) 97,87 %
24.12.2018 22:14 0,1 C 0,6 C -0,6 C 93 % 1033,8 hPa 0,0 l/m 0 min 0 min 0 W/m 0,0 km/h (0 Bft) 97,83 %
24.12.2018 22:16 0,1 C 0,0 C -0,6 C 93 % 1033,7 hPa 0,0 l/m 0 min 0 min 0 W/m 0,0 km/h (0 Bft) 97,87 %
24.12.2018 22:18 0,1 C 0,0 C -0,6 C 93 % 1033,7 hPa 0,0 l/m 0 min 0 min 0 W/m 0,0 km/h (0 Bft) 97,87 %
24.12.2018 22:20 0,1 C 0,0 C -0,6 C 93 % 1033,7 hPa 0,0 l/m 0 min 0 min 0 W/m 0,0 km/h (0 Bft) 95,74 %
24.12.2018 22:22 0,2 C 0,0 C -0,6 C 94 % 1033,7 hPa 0,0 l/m 0 min 0 min 0 W/m 0,0 km/h (0 Bft) 95,74 %
24.12.2018 22:24 0,2 C 0,0 C -0,6 C 94 % 1033,8 hPa 0,0 l/m 0 min 0 min 0 W/m 0,0 km/h (0 Bft) 100,00 %
24.12.2018 22:26 0,2 C 0,0 C -0,6 C 94 % 1033,7 hPa 0,0 l/m 0 min 0 min 0 W/m 0,0 km/h (0 Bft) 98,21 %
24.12.2018 22:28 0,2 C 0,0 C -0,6 C 94 % 1033,6 hPa 0,0 l/m 0 min 0 min 0 W/m 0,0 km/h (0 Bft) 100,00 %
24.12.2018 22:30 0,3 C 0,0 C -0,6 C 94 % 1033,6 hPa 0,0 l/m 0 min 0 min 0 W/m 0,0 km/h (0 Bft) 97,83 %
24.12.2018 22:32 0,3 C 0,0 C -0,6 C 94 % 1033,6 hPa 0,0 l/m 0 min 0 min 0 W/m 0,0 km/h (0 Bft) 100,00 %
24.12.2018 22:34 0,3 C 0,0 C -0,6 C 94 % 1033,7 hPa 0,0 l/m 0 min 0 min 0 W/m 0,0 km/h (0 Bft) 100,00 %
24.12.2018 22:36 0,3 C 0,0 C -0,6 C 94 % 1033,6 hPa 0,0 l/m 0 min 0 min 0 W/m 0,0 km/h (0 Bft) 100,00 %
24.12.2018 22:38 0,3 C 0,0 C -0,6 C 94 % 1033,6 hPa 0,0 l/m 0 min 0 min 0 W/m 0,0 km/h (0 Bft) 100,00 %
24.12.2018 22:40 0,3 C 0,6 C -0,6 C 94 % 1033,6 hPa 0,0 l/m 0 min 0 min 0 W/m 0,0 km/h (0 Bft) 100,00 %
24.12.2018 22:42 0,4 C 0,6 C -0,6 C 94 % 1033,5 hPa 0,0 l/m 0 min 0 min 0 W/m 0,0 km/h (0 Bft) 100,00 %
24.12.2018 22:44 0,4 C 0,6 C 0,0 C 94 % 1033,5 hPa 0,0 l/m 0 min 0 min 0 W/m 0,0 km/h (0 Bft) 97,87 %
24.12.2018 22:46 0,4 C 0,6 C 0,0 C 94 % 1033,6 hPa 0,0 l/m 0 min 0 min 0 W/m 0,0 km/h (0 Bft) 97,87 %
24.12.2018 22:48 0,5 C 1,1 C 0,0 C 94 % 1033,5 hPa 0,0 l/m 0 min 0 min 0 W/m 3,2 km/h (1 Bft) 95,74 %
24.12.2018 22:50 0,5 C 1,1 C 0,0 C 94 % 1033,6 hPa 0,0 l/m 0 min 0 min 0 W/m 3,2 km/h (1 Bft) 97,87 %
24.12.2018 22:52 0,5 C 1,1 C 0,0 C 94 % 1033,6 hPa 0,0 l/m 0 min 0 min 0 W/m 9,7 km/h (2 Bft) 100,00 %
24.12.2018 22:54 0,6 C 1,1 C 0,6 C 95 % 1033,5 hPa 0,0 l/m 0 min 0 min 0 W/m 6,4 km/h (2 Bft) 100,00 %
24.12.2018 22:56 0,7 C 1,7 C 0,6 C 95 % 1033,6 hPa 0,0 l/m 0 min 0 min 0 W/m 3,2 km/h (1 Bft) 95,74 %
24.12.2018 22:58 0,8 C 1,7 C 0,6 C 95 % 1033,7 hPa 0,0 l/m 0 min 0 min 0 W/m 3,2 km/h (1 Bft) 95,74 %
24.12.2018 23:00 0,8 C 1,7 C 0,6 C 95 % 1033,6 hPa 0,0 l/m 0 min 0 min 0 W/m 3,2 km/h (1 Bft) 97,87 %
24.12.2018 23:02 0,9 C 1,7 C 0,6 C 95 % 1033,7 hPa 0,0 l/m 0 min 0 min 0 W/m 3,2 km/h (1 Bft) 95,83 %
24.12.2018 23:04 0,9 C 1,1 C 0,6 C 95 % 1033,6 hPa 0,0 l/m 0 min 0 min 0 W/m 0,0 km/h (0 Bft) 97,83 %
24.12.2018 23:06 1,0 C 1,1 C 0,6 C 95 % 1033,7 hPa 0,0 l/m 0 min 0 min 0 W/m 0,0 km/h (0 Bft) 97,87 %
24.12.2018 23:08 1,0 C 1,7 C 0,6 C 95 % 1033,7 hPa 0,0 l/m 0 min 0 min 0 W/m 0,0 km/h (0 Bft) 97,87 %
24.12.2018 23:10 1,1 C 1,7 C 0,6 C 95 % 1033,8 hPa 0,0 l/m 0 min 0 min 0 W/m 6,4 km/h (2 Bft) 95,92 %
24.12.2018 23:12 1,2 C 1,7 C 0,6 C 95 % 1033,8 hPa 0,0 l/m 0 min 0 min 0 W/m 3,2 km/h (1 Bft) 97,87 %
24.12.2018 23:14 1,2 C 1,7 C 0,6 C 95 % 1033,8 hPa 0,0 l/m 0 min 0 min 0 W/m 0,0 km/h (0 Bft) 97,83 %
24.12.2018 23:16 1,2 C 1,7 C 0,6 C 95 % 1033,8 hPa 0,0 l/m 0 min 0 min 0 W/m 0,0 km/h (0 Bft) 95,83 %
24.12.2018 23:18 1,3 C 1,1 C 0,6 C 95 % 1033,8 hPa 0,0 l/m 0 min 0 min 0 W/m 0,0 km/h (0 Bft) 97,87 %
24.12.2018 23:20 1,3 C 1,1 C 0,6 C 95 % 1033,7 hPa 0,0 l/m 0 min 0 min 0 W/m 0,0 km/h (0 Bft) 95,74 %
24.12.2018 23:22 1,3 C 1,1 C 0,6 C 95 % 1033,7 hPa 0,0 l/m 0 min 0 min 0 W/m 0,0 km/h (0 Bft) 97,87 %
24.12.2018 23:24 1,3 C 1,7 C 0,6 C 95 % 1033,8 hPa 0,0 l/m 0 min 0 min 0 W/m 0,0 km/h (0 Bft) 97,87 %
24.12.2018 23:26 1,4 C 1,1 C 0,6 C 95 % 1033,8 hPa 0,0 l/m 0 min 0 min 0 W/m 0,0 km/h (0 Bft) 97,87 %
24.12.2018 23:28 1,4 C 1,1 C 0,6 C 95 % 1033,8 hPa 0,0 l/m 0 min 0 min 0 W/m 0,0 km/h (0 Bft) 97,83 %
24.12.2018 23:30 1,4 C 1,1 C 0,6 C 96 % 1033,9 hPa 0,0 l/m 0 min 0 min 0 W/m 0,0 km/h (0 Bft) 95,74 %
24.12.2018 23:32 1,4 C 1,1 C 0,6 C 96 % 1033,8 hPa 0,0 l/m 0 min 0 min 0 W/m 0,0 km/h (0 Bft) 100,00 %
24.12.2018 23:34 1,4 C 1,7 C 0,6 C 96 % 1033,8 hPa 0,0 l/m 0 min 0 min 0 W/m 0,0 km/h (0 Bft) 100,00 %
24.12.2018 23:36 1,4 C 1,7 C 0,6 C 96 % 1033,8 hPa 0,0 l/m 0 min 0 min 0 W/m 0,0 km/h (0 Bft) 100,00 %
24.12.2018 23:38 1,5 C 1,7 C 0,6 C 96 % 1033,9 hPa 0,0 l/m 0 min 0 min 0 W/m 0,0 km/h (0 Bft) 100,00 %
24.12.2018 23:40 1,5 C 1,7 C 0,6 C 96 % 1033,8 hPa 0,0 l/m 0 min 0 min 0 W/m 3,2 km/h (1 Bft) 100,00 %
24.12.2018 23:42 1,6 C 1,7 C 0,6 C 96 % 1033,9 hPa 0,0 l/m 0 min 0 min 0 W/m 0,0 km/h (0 Bft) 97,87 %
24.12.2018 23:44 1,6 C 1,7 C 1,1 C 96 % 1033,8 hPa 0,0 l/m 0 min 0 min 0 W/m 0,0 km/h (0 Bft) 100,00 %
24.12.2018 23:46 1,6 C 2,2 C 1,1 C 96 % 1033,8 hPa 0,0 l/m 0 min 0 min 0 W/m 3,2 km/h (1 Bft) 97,87 %
24.12.2018 23:48 1,6 C 2,2 C 1,1 C 96 % 1033,7 hPa 0,0 l/m 0 min 0 min 0 W/m 3,2 km/h (1 Bft) 100,00 %
24.12.2018 23:50 1,7 C 2,2 C 1,1 C 96 % 1033,8 hPa 0,0 l/m 0 min 0 min 0 W/m 3,2 km/h (1 Bft) 97,83 %
24.12.2018 23:52 1,7 C 2,2 C 1,1 C 96 % 1033,7 hPa 0,0 l/m 0 min 0 min 0 W/m 0,0 km/h (0 Bft) 100,00 %
24.12.2018 23:54 1,7 C 2,2 C 1,1 C 96 % 1033,7 hPa 0,0 l/m 0 min 0 min 0 W/m 3,2 km/h (1 Bft) 100,00 %
24.12.2018 23:56 1,7 C 2,2 C 1,1 C 96 % 1033,7 hPa 0,0 l/m 0 min 0 min 0 W/m 0,0 km/h (0 Bft) 100,00 %
24.12.2018 23:58 1,7 C 2,2 C 1,1 C 96 % 1033,6 hPa 0,0 l/m 0 min 0 min 0 W/m 0,0 km/h (0 Bft) 100,00 %
_ Min-Zeit 21:46 20:28 20:24 14:04 00:00 - - - - 08:26 00:02
Minimum _ -0,2 C -1,7 C -1,7 C 75 % 1014,2 hPa - - - - 0,0 km/h (0 Bft) 10,00 %
_ Max-Zeit 13:32 12:48 13:58 00:44 21:46 00:16 12:08 00:07 12:32 01:02 00:00
Maximum _ 8,2 C 16,1 C 6,1 C 99 % 1033,9 hPa 0,2 l/m 4 min 3 min 308 W/m 32,2 km/h
W (5 Bft)
100,00 %
Durchschnitt _ 4,4 C 4,7 C 2,9 C 93 % 1026,8 hPa #1,0 l/m #3:08 h #1:42 h 126 W/m 8,0 km/h (2 Bft) 97,23 %
© 2018 W. Hausmann